Wetterdaten: Samstag, 25.03.2023
Datum Zeit Temp. Aussen Temp. o. S. Temp +5cm Feuchte Auss Luftdruck Regen Sonnenschein Regendauer Solar Windben Empfang
25.03.2023 00:00 9,6 C 8,9 C 5,6 C 86 % 1003,8 hPa 0,0 l/m 0 min 0 min 0 W/m 32,2 km/h (5 Bft) 95,74 %
25.03.2023 00:02 9,6 C 8,9 C 5,6 C 86 % 1003,7 hPa 0,0 l/m 0 min 0 min 0 W/m 25,7 km/h (4 Bft) 93,75 %
25.03.2023 00:04 9,6 C 8,9 C 5,6 C 86 % 1003,7 hPa 0,0 l/m 0 min 0 min 0 W/m 16,1 km/h (3 Bft) 97,87 %
25.03.2023 00:07 9,6 C 8,9 C 5,6 C 86 % 1003,7 hPa 0,0 l/m 0 min 0 min 0 W/m 29,0 km/h (5 Bft) 96,34 %
25.03.2023 00:08 9,6 C 8,9 C 5,6 C 86 % 1003,7 hPa 0,0 l/m 0 min 0 min 0 W/m 19,3 km/h (3 Bft) 100,00 %
25.03.2023 00:12 9,5 C 8,9 C 5,6 C 86 % 1003,8 hPa 0,0 l/m 0 min 0 min 0 W/m 38,6 km/h (5 Bft) 91,30 %
25.03.2023 00:18 9,4 C 8,3 C 5,6 C 86 % 1003,8 hPa 0,0 l/m 0 min 0 min 0 W/m 32,2 km/h (5 Bft) 97,87 %
25.03.2023 00:20 9,4 C 8,3 C 5,0 C 86 % 1003,9 hPa 0,0 l/m 0 min 0 min 0 W/m 35,4 km/h (5 Bft) 97,83 %
25.03.2023 00:22 9,4 C 8,3 C 5,0 C 86 % 1003,9 hPa 0,0 l/m 0 min 0 min 0 W/m 22,5 km/h (4 Bft) 97,37 %
25.03.2023 00:24 9,4 C 8,3 C 5,0 C 86 % 1004,0 hPa 0,0 l/m 0 min 0 min 0 W/m 38,6 km/h (5 Bft) 95,74 %
25.03.2023 00:26 9,4 C 8,3 C 5,0 C 86 % 1004,1 hPa 0,0 l/m 0 min 0 min 0 W/m 22,5 km/h (4 Bft) 97,83 %
25.03.2023 00:28 9,4 C 8,3 C 5,0 C 86 % 1004,0 hPa 0,0 l/m 0 min 0 min 0 W/m 29,0 km/h (5 Bft) 93,62 %
25.03.2023 00:30 9,3 C 8,3 C 5,0 C 86 % 1004,1 hPa 0,0 l/m 0 min 0 min 0 W/m 22,5 km/h (4 Bft) 95,74 %
25.03.2023 00:32 9,3 C 8,3 C 5,0 C 86 % 1004,0 hPa 0,0 l/m 0 min 0 min 0 W/m 25,7 km/h (4 Bft) 95,74 %
25.03.2023 00:34 9,3 C 8,3 C 5,0 C 86 % 1004,0 hPa 0,0 l/m 0 min 0 min 0 W/m 35,4 km/h (5 Bft) 97,87 %
25.03.2023 00:36 9,3 C 8,3 C 5,0 C 86 % 1004,0 hPa 0,0 l/m 0 min 0 min 0 W/m 25,7 km/h (4 Bft) 93,62 %
25.03.2023 00:38 9,3 C 8,3 C 5,0 C 86 % 1004,0 hPa 0,0 l/m 0 min 0 min 0 W/m 16,1 km/h (3 Bft) 97,87 %
25.03.2023 00:40 9,2 C 8,3 C 5,0 C 87 % 1004,1 hPa 0,0 l/m 0 min 0 min 0 W/m 22,5 km/h (4 Bft) 100,00 %
25.03.2023 00:42 9,2 C 8,3 C 5,0 C 86 % 1004,0 hPa 0,0 l/m 0 min 0 min 0 W/m 22,5 km/h (4 Bft) 97,87 %
25.03.2023 00:44 9,2 C 8,3 C 5,0 C 87 % 1004,0 hPa 0,0 l/m 0 min 0 min 0 W/m 16,1 km/h (3 Bft) 100,00 %
25.03.2023 00:46 9,1 C 8,3 C 5,0 C 87 % 1004,0 hPa 0,0 l/m 0 min 0 min 0 W/m 22,5 km/h (4 Bft) 100,00 %
25.03.2023 00:48 9,1 C 8,3 C 5,0 C 87 % 1004,0 hPa 0,0 l/m 0 min 0 min 0 W/m 19,3 km/h (3 Bft) 100,00 %
25.03.2023 00:50 9,1 C 8,3 C 5,0 C 87 % 1004,1 hPa 0,0 l/m 0 min 0 min 0 W/m 22,5 km/h (4 Bft) 100,00 %
25.03.2023 00:52 9,1 C 8,3 C 5,0 C 87 % 1004,0 hPa 0,0 l/m 0 min 0 min 0 W/m 19,3 km/h (3 Bft) 100,00 %
25.03.2023 00:54 9,0 C 8,3 C 5,0 C 87 % 1004,1 hPa 0,0 l/m 0 min 0 min 0 W/m 16,1 km/h (3 Bft) 97,87 %
25.03.2023 00:56 9,0 C 8,3 C 5,0 C 87 % 1004,1 hPa 0,0 l/m 0 min 0 min 0 W/m 16,1 km/h (3 Bft) 97,87 %
25.03.2023 00:58 9,0 C 8,3 C 5,0 C 88 % 1004,2 hPa 0,0 l/m 0 min 0 min 0 W/m 19,3 km/h (3 Bft) 100,00 %
25.03.2023 01:00 9,1 C 8,3 C 5,0 C 88 % 1004,2 hPa 0,0 l/m 0 min 0 min 0 W/m 19,3 km/h (3 Bft) 100,00 %
25.03.2023 01:02 9,1 C 8,3 C 5,0 C 88 % 1004,2 hPa 0,0 l/m 0 min 0 min 0 W/m 22,5 km/h (4 Bft) 97,87 %
25.03.2023 01:04 9,1 C 8,3 C 5,0 C 88 % 1004,2 hPa 0,0 l/m 0 min 0 min 0 W/m 16,1 km/h (3 Bft) 97,83 %
25.03.2023 01:06 9,1 C 8,3 C 5,0 C 88 % 1004,1 hPa 0,0 l/m 0 min 0 min 0 W/m 19,3 km/h (3 Bft) 97,87 %
25.03.2023 01:08 9,1 C 8,3 C 5,0 C 88 % 1004,2 hPa 0,0 l/m 0 min 0 min 0 W/m 22,5 km/h (4 Bft) 97,87 %
25.03.2023 01:10 9,2 C 8,3 C 5,0 C 88 % 1004,1 hPa 0,0 l/m 0 min 0 min 0 W/m 32,2 km/h (5 Bft) 95,74 %
25.03.2023 01:12 9,2 C 8,3 C 5,0 C 88 % 1004,1 hPa 0,0 l/m 0 min 0 min 0 W/m 16,1 km/h (3 Bft) 97,87 %
25.03.2023 01:14 9,2 C 8,3 C 5,0 C 88 % 1004,1 hPa 0,0 l/m 0 min 0 min 0 W/m 25,7 km/h (4 Bft) 95,74 %
25.03.2023 01:16 9,2 C 8,3 C 5,0 C 87 % 1004,1 hPa 0,0 l/m 0 min 0 min 0 W/m 19,3 km/h (3 Bft) 97,96 %
25.03.2023 01:18 9,2 C 8,3 C 5,0 C 87 % 1004,0 hPa 0,0 l/m 0 min 0 min 0 W/m 19,3 km/h (3 Bft) 95,74 %
25.03.2023 01:20 9,2 C 8,3 C 5,0 C 87 % 1004,0 hPa 0,0 l/m 0 min 0 min 0 W/m 22,5 km/h (4 Bft) 95,74 %
25.03.2023 01:22 9,2 C 8,3 C 5,0 C 87 % 1004,1 hPa 0,0 l/m 0 min 0 min 0 W/m 19,3 km/h (3 Bft) 95,74 %
25.03.2023 01:24 9,2 C 8,3 C 5,0 C 87 % 1004,0 hPa 0,0 l/m 0 min 0 min 0 W/m 35,4 km/h (5 Bft) 93,62 %
25.03.2023 01:26 9,2 C 8,3 C 5,0 C 87 % 1004,0 hPa 0,0 l/m 0 min 0 min 0 W/m 16,1 km/h (3 Bft) 97,30 %
25.03.2023 01:28 9,2 C 8,3 C 5,0 C 87 % 1004,0 hPa 0,0 l/m 0 min 0 min 0 W/m 29,0 km/h (5 Bft) 95,74 %
25.03.2023 01:30 9,2 C 8,3 C 5,0 C 87 % 1004,0 hPa 0,0 l/m 0 min 0 min 0 W/m 25,7 km/h (4 Bft) 95,74 %
25.03.2023 01:32 9,2 C 8,3 C 5,0 C 87 % 1004,1 hPa 0,0 l/m 0 min 0 min 0 W/m 32,2 km/h (5 Bft) 95,74 %
25.03.2023 01:34 9,3 C 8,3 C 5,0 C 87 % 1004,0 hPa 0,0 l/m 0 min 0 min 0 W/m 25,7 km/h (4 Bft) 95,74 %
25.03.2023 01:36 9,3 C 8,3 C 5,0 C 87 % 1004,0 hPa 0,0 l/m 0 min 0 min 0 W/m 22,5 km/h (4 Bft) 97,83 %
25.03.2023 01:38 9,3 C 8,3 C 5,0 C 87 % 1003,9 hPa 0,0 l/m 0 min 0 min 0 W/m 19,3 km/h (3 Bft) 97,87 %
25.03.2023 01:40 9,3 C 8,3 C 5,0 C 87 % 1004,0 hPa 0,0 l/m 0 min 0 min 0 W/m 25,7 km/h (4 Bft) 97,87 %
25.03.2023 01:42 9,3 C 8,3 C 5,0 C 87 % 1003,9 hPa 0,0 l/m 0 min 0 min 0 W/m 22,5 km/h (4 Bft) 95,74 %
25.03.2023 01:44 9,3 C 8,3 C 5,0 C 87 % 1003,9 hPa 0,0 l/m 0 min 0 min 0 W/m 25,7 km/h (4 Bft) 97,87 %
25.03.2023 01:46 9,3 C 8,3 C 5,0 C 87 % 1003,9 hPa 0,0 l/m 0 min 0 min 0 W/m 22,5 km/h (4 Bft) 97,87 %
25.03.2023 01:48 9,3 C 8,3 C 5,0 C 86 % 1004,0 hPa 0,0 l/m 0 min 0 min 0 W/m 22,5 km/h (4 Bft) 93,62 %
25.03.2023 01:50 9,3 C 8,3 C 5,0 C 86 % 1004,0 hPa 0,0 l/m 0 min 0 min 0 W/m 25,7 km/h (4 Bft) 97,83 %
25.03.2023 01:52 9,3 C 8,3 C 5,0 C 86 % 1004,0 hPa 0,0 l/m 0 min 0 min 0 W/m 32,2 km/h (5 Bft) 97,87 %
25.03.2023 01:54 9,3 C 8,3 C 5,0 C 86 % 1004,0 hPa 0,0 l/m 0 min 0 min 0 W/m 25,7 km/h (4 Bft) 97,87 %
25.03.2023 01:56 9,3 C 8,9 C 5,6 C 86 % 1004,1 hPa 0,0 l/m 0 min 0 min 0 W/m 29,0 km/h (5 Bft) 98,18 %
25.03.2023 01:58 9,3 C 8,9 C 5,6 C 86 % 1003,9 hPa 0,0 l/m 0 min 0 min 0 W/m 29,0 km/h (5 Bft) 95,74 %
25.03.2023 02:00 9,3 C 8,9 C 5,6 C 86 % 1004,0 hPa 0,0 l/m 0 min 0 min 0 W/m 32,2 km/h (5 Bft) 97,87 %
25.03.2023 02:02 9,4 C 8,9 C 5,6 C 86 % 1004,0 hPa 0,0 l/m 0 min 0 min 0 W/m 22,5 km/h (4 Bft) 100,00 %
25.03.2023 02:04 9,4 C 8,9 C 5,6 C 86 % 1003,9 hPa 0,0 l/m 0 min 0 min 0 W/m 19,3 km/h (3 Bft) 100,00 %
25.03.2023 02:06 9,4 C 8,9 C 5,6 C 85 % 1003,9 hPa 0,0 l/m 0 min 0 min 0 W/m 35,4 km/h (5 Bft) 100,00 %
25.03.2023 02:08 9,4 C 8,9 C 5,6 C 85 % 1004,0 hPa 0,0 l/m 0 min 0 min 0 W/m 25,7 km/h (4 Bft) 97,87 %
25.03.2023 02:10 9,4 C 8,9 C 5,6 C 85 % 1004,0 hPa 0,0 l/m 0 min 0 min 0 W/m 25,7 km/h (4 Bft) 97,87 %
25.03.2023 02:14 9,4 C 8,9 C 5,6 C 84 % 1004,0 hPa 0,0 l/m 0 min 0 min 0 W/m 32,2 km/h (5 Bft) 93,33 %
25.03.2023 02:16 9,4 C 8,9 C 5,6 C 84 % 1003,9 hPa 0,0 l/m 0 min 0 min 0 W/m 12,9 km/h (3 Bft) 95,74 %
25.03.2023 02:18 9,4 C 8,9 C 5,6 C 84 % 1003,8 hPa 0,0 l/m 0 min 0 min 0 W/m 19,3 km/h (3 Bft) 97,87 %
25.03.2023 02:20 9,4 C 8,9 C 5,6 C 84 % 1004,0 hPa 0,0 l/m 0 min 0 min 0 W/m 38,6 km/h (5 Bft) 100,00 %
25.03.2023 02:22 9,4 C 8,9 C 5,6 C 84 % 1003,9 hPa 0,0 l/m 0 min 0 min 0 W/m 35,4 km/h (5 Bft) 100,00 %
25.03.2023 02:24 9,4 C 8,9 C 5,6 C 83 % 1003,9 hPa 0,0 l/m 0 min 0 min 0 W/m 48,3 km/h (6 Bft) 100,00 %
25.03.2023 02:26 9,4 C 8,9 C 5,6 C 83 % 1003,8 hPa 0,0 l/m 0 min 0 min 0 W/m 29,0 km/h (5 Bft) 97,87 %
25.03.2023 02:28 9,4 C 8,9 C 5,6 C 83 % 1003,8 hPa 0,0 l/m 0 min 0 min 0 W/m 19,3 km/h (3 Bft) 100,00 %
25.03.2023 02:30 9,4 C 8,9 C 5,6 C 83 % 1003,9 hPa 0,0 l/m 0 min 0 min 0 W/m 35,4 km/h (5 Bft) 97,87 %
25.03.2023 02:32 9,4 C 8,9 C 5,6 C 83 % 1003,9 hPa 0,0 l/m 0 min 0 min 0 W/m 41,8 km/h (6 Bft) 100,00 %
25.03.2023 02:34 9,4 C 8,9 C 5,0 C 83 % 1003,9 hPa 0,0 l/m 0 min 0 min 0 W/m 22,5 km/h (4 Bft) 97,87 %
25.03.2023 02:36 9,4 C 8,9 C 5,0 C 83 % 1003,9 hPa 0,0 l/m 0 min 0 min 0 W/m 22,5 km/h (4 Bft) 97,87 %
25.03.2023 02:38 9,4 C 8,3 C 5,0 C 83 % 1003,9 hPa 0,0 l/m 0 min 0 min 0 W/m 25,7 km/h (4 Bft) 97,83 %
25.03.2023 02:40 9,3 C 8,9 C 5,0 C 83 % 1004,0 hPa 0,0 l/m 0 min 0 min 0 W/m 35,4 km/h (5 Bft) 100,00 %
25.03.2023 02:42 9,3 C 8,9 C 5,0 C 83 % 1003,8 hPa 0,0 l/m 0 min 0 min 0 W/m 32,2 km/h (5 Bft) 97,87 %
25.03.2023 02:44 9,3 C 8,3 C 5,0 C 83 % 1003,9 hPa 0,0 l/m 0 min 0 min 0 W/m 22,5 km/h (4 Bft) 100,00 %
25.03.2023 02:46 9,3 C 8,3 C 5,0 C 83 % 1003,8 hPa 0,0 l/m 0 min 0 min 0 W/m 19,3 km/h (3 Bft) 95,83 %
25.03.2023 02:48 9,3 C 8,3 C 5,0 C 83 % 1003,8 hPa 0,0 l/m 0 min 0 min 0 W/m 41,8 km/h (6 Bft) 95,74 %
25.03.2023 02:50 9,3 C 8,3 C 5,0 C 83 % 1003,9 hPa 0,0 l/m 0 min 0 min 0 W/m 22,5 km/h (4 Bft) 95,74 %
25.03.2023 02:52 9,3 C 8,3 C 5,0 C 83 % 1003,8 hPa 0,0 l/m 0 min 0 min 0 W/m 16,1 km/h (3 Bft) 97,83 %
25.03.2023 02:54 9,3 C 8,3 C 5,0 C 83 % 1003,7 hPa 0,0 l/m 0 min 0 min 0 W/m 19,3 km/h (3 Bft) 95,74 %
25.03.2023 02:56 9,3 C 8,3 C 5,0 C 83 % 1003,8 hPa 0,0 l/m 0 min 0 min 0 W/m 29,0 km/h (5 Bft) 97,87 %
25.03.2023 02:58 9,3 C 8,3 C 5,0 C 83 % 1003,8 hPa 0,0 l/m 0 min 0 min 0 W/m 16,1 km/h (3 Bft) 95,74 %
25.03.2023 03:00 9,3 C 8,3 C 5,0 C 83 % 1003,8 hPa 0,0 l/m 0 min 0 min 0 W/m 22,5 km/h (4 Bft) 95,74 %
25.03.2023 03:02 9,3 C 8,3 C 5,0 C 83 % 1003,8 hPa 0,0 l/m 0 min 0 min 0 W/m 51,5 km/h (7 Bft) 91,49 %
25.03.2023 03:04 9,3 C 8,3 C 5,0 C 83 % 1003,7 hPa 0,0 l/m 0 min 0 min 0 W/m 25,7 km/h (4 Bft) 95,74 %
25.03.2023 03:06 9,3 C 8,3 C 5,0 C 83 % 1003,8 hPa 0,0 l/m 0 min 0 min 0 W/m 22,5 km/h (4 Bft) 96,15 %
25.03.2023 03:08 9,3 C 8,3 C 5,0 C 83 % 1003,7 hPa 0,0 l/m 0 min 0 min 0 W/m 22,5 km/h (4 Bft) 95,74 %
25.03.2023 03:10 9,2 C 8,3 C 5,0 C 83 % 1003,8 hPa 0,0 l/m 0 min 0 min 0 W/m 29,0 km/h (5 Bft) 95,74 %
25.03.2023 03:12 9,2 C 8,3 C 5,0 C 84 % 1003,7 hPa 0,0 l/m 0 min 0 min 0 W/m 22,5 km/h (4 Bft) 93,62 %
25.03.2023 03:14 9,2 C 8,3 C 5,0 C 84 % 1003,7 hPa 0,0 l/m 0 min 0 min 0 W/m 29,0 km/h (5 Bft) 93,62 %
25.03.2023 03:16 9,2 C 8,3 C 5,0 C 84 % 1003,7 hPa 0,0 l/m 0 min 0 min 0 W/m 32,2 km/h (5 Bft) 93,62 %
25.03.2023 03:18 9,2 C 8,3 C 5,0 C 84 % 1003,8 hPa 0,0 l/m 0 min 0 min 0 W/m 22,5 km/h (4 Bft) 93,62 %
25.03.2023 03:20 9,2 C 8,3 C 5,0 C 84 % 1003,8 hPa 0,0 l/m 0 min 0 min 0 W/m 25,7 km/h (4 Bft) 95,74 %
25.03.2023 03:22 9,2 C 8,3 C 5,0 C 84 % 1003,8 hPa 0,0 l/m 0 min 0 min 0 W/m 16,1 km/h (3 Bft) 95,74 %
25.03.2023 03:24 9,2 C 8,3 C 5,0 C 84 % 1003,8 hPa 0,0 l/m 0 min 0 min 0 W/m 19,3 km/h (3 Bft) 95,74 %
25.03.2023 03:26 9,2 C 8,3 C 5,0 C 84 % 1003,8 hPa 0,0 l/m 0 min 0 min 0 W/m 16,1 km/h (3 Bft) 95,74 %
25.03.2023 03:28 9,1 C 8,3 C 5,0 C 84 % 1003,8 hPa 0,0 l/m 0 min 0 min 0 W/m 19,3 km/h (3 Bft) 95,74 %
25.03.2023 03:30 9,1 C 8,3 C 5,0 C 84 % 1003,7 hPa 0,0 l/m 0 min 0 min 0 W/m 41,8 km/h (6 Bft) 97,87 %
25.03.2023 03:32 9,1 C 8,3 C 5,0 C 84 % 1003,8 hPa 0,0 l/m 0 min 0 min 0 W/m 16,1 km/h (3 Bft) 95,74 %
25.03.2023 03:34 9,1 C 8,3 C 5,0 C 84 % 1003,8 hPa 0,0 l/m 0 min 0 min 0 W/m 32,2 km/h (5 Bft) 97,83 %
25.03.2023 03:36 9,1 C 8,3 C 5,0 C 84 % 1003,7 hPa 0,0 l/m 0 min 0 min 0 W/m 29,0 km/h (5 Bft) 100,00 %
25.03.2023 03:38 9,0 C 8,3 C 5,0 C 84 % 1003,8 hPa 0,0 l/m 0 min 0 min 0 W/m 19,3 km/h (3 Bft) 97,87 %
25.03.2023 03:40 9,0 C 8,3 C 5,0 C 84 % 1003,8 hPa 0,0 l/m 0 min 0 min 0 W/m 29,0 km/h (5 Bft) 97,87 %
25.03.2023 03:42 8,9 C 8,3 C 5,0 C 84 % 1003,8 hPa 0,0 l/m 0 min 0 min 0 W/m 16,1 km/h (3 Bft) 97,87 %
25.03.2023 03:44 8,9 C 8,3 C 5,0 C 84 % 1003,8 hPa 0,0 l/m 0 min 0 min 0 W/m 19,3 km/h (3 Bft) 100,00 %
25.03.2023 03:46 8,9 C 7,8 C 5,0 C 84 % 1003,8 hPa 0,0 l/m 0 min 0 min 0 W/m 19,3 km/h (3 Bft) 97,83 %
25.03.2023 03:48 8,8 C 8,3 C 5,0 C 85 % 1003,9 hPa 0,0 l/m 0 min 0 min 0 W/m 35,4 km/h (5 Bft) 100,00 %
25.03.2023 03:50 8,8 C 7,8 C 5,0 C 85 % 1003,8 hPa 0,0 l/m 0 min 0 min 0 W/m 19,3 km/h (3 Bft) 97,87 %
25.03.2023 03:52 8,8 C 7,8 C 5,0 C 85 % 1003,8 hPa 0,0 l/m 0 min 0 min 0 W/m 16,1 km/h (3 Bft) 100,00 %
25.03.2023 03:54 8,8 C 8,3 C 5,0 C 85 % 1003,9 hPa 0,0 l/m 0 min 0 min 0 W/m 41,8 km/h (6 Bft) 100,00 %
25.03.2023 03:56 8,8 C 8,3 C 5,0 C 85 % 1003,8 hPa 0,0 l/m 0 min 0 min 0 W/m 22,5 km/h (4 Bft) 95,74 %
25.03.2023 03:58 8,8 C 8,3 C 5,0 C 85 % 1003,8 hPa 0,0 l/m 0 min 0 min 0 W/m 32,2 km/h (5 Bft) 95,83 %
25.03.2023 04:00 8,8 C 8,3 C 5,0 C 85 % 1003,8 hPa 0,0 l/m 0 min 0 min 0 W/m 25,7 km/h (4 Bft) 100,00 %
25.03.2023 04:02 8,8 C 8,3 C 5,0 C 85 % 1003,8 hPa 0,0 l/m 0 min 0 min 0 W/m 19,3 km/h (3 Bft) 93,62 %
25.03.2023 04:04 8,8 C 8,3 C 5,0 C 85 % 1003,7 hPa 0,0 l/m 0 min 0 min 0 W/m 16,1 km/h (3 Bft) 97,83 %
25.03.2023 04:06 8,8 C 8,3 C 5,0 C 85 % 1003,7 hPa 0,0 l/m 0 min 0 min 0 W/m 22,5 km/h (4 Bft) 98,31 %
25.03.2023 04:08 8,8 C 8,3 C 5,0 C 85 % 1003,8 hPa 0,0 l/m 0 min 0 min 0 W/m 29,0 km/h (5 Bft) 97,14 %
25.03.2023 04:10 8,8 C 8,3 C 5,0 C 85 % 1003,6 hPa 0,0 l/m 0 min 2 min 0 W/m 29,0 km/h (5 Bft) 97,87 %
25.03.2023 04:12 8,8 C 8,3 C 4,4 C 85 % 1003,7 hPa 0,0 l/m 0 min 2 min 0 W/m 32,2 km/h (5 Bft) 97,87 %
25.03.2023 04:14 8,8 C 8,3 C 4,4 C 86 % 1003,6 hPa 0,0 l/m 0 min 2 min 0 W/m 25,7 km/h (4 Bft) 95,74 %
25.03.2023 04:16 8,8 C 7,8 C 4,4 C 86 % 1003,6 hPa 0,0 l/m 0 min 0 min 0 W/m 16,1 km/h (3 Bft) 97,87 %
25.03.2023 04:18 8,8 C 7,8 C 4,4 C 86 % 1003,6 hPa 0,0 l/m 0 min 0 min 0 W/m 25,7 km/h (4 Bft) 97,83 %
25.03.2023 04:20 8,8 C 7,8 C 4,4 C 86 % 1003,6 hPa 0,0 l/m 0 min 0 min 0 W/m 25,7 km/h (4 Bft) 97,92 %
25.03.2023 04:22 8,8 C 7,8 C 4,4 C 86 % 1003,6 hPa 0,0 l/m 0 min 0 min 0 W/m 16,1 km/h (3 Bft) 57,45 %
25.03.2023 04:24 8,8 C 7,8 C 4,4 C 86 % 1003,6 hPa 0,0 l/m 0 min 2 min 0 W/m 22,5 km/h (4 Bft) 93,62 %
25.03.2023 04:26 8,8 C 7,8 C 4,4 C 86 % 1003,6 hPa 0,0 l/m 0 min 2 min 0 W/m 25,7 km/h (4 Bft) 97,87 %
25.03.2023 04:28 8,7 C 7,8 C 4,4 C 86 % 1003,7 hPa 0,0 l/m 0 min 2 min 0 W/m 29,0 km/h (5 Bft) 97,87 %
25.03.2023 04:30 8,7 C 7,8 C 4,4 C 86 % 1003,6 hPa 0,0 l/m 0 min 2 min 0 W/m 25,7 km/h (4 Bft) 93,75 %
25.03.2023 04:32 8,7 C 7,8 C 4,4 C 86 % 1003,7 hPa 0,0 l/m 0 min 0 min 0 W/m 38,6 km/h (5 Bft) 95,65 %
25.03.2023 04:34 8,7 C 7,8 C 4,4 C 86 % 1003,5 hPa 0,0 l/m 0 min 0 min 0 W/m 19,3 km/h (3 Bft) 97,87 %
25.03.2023 04:36 8,7 C 7,8 C 4,4 C 86 % 1003,6 hPa 0,0 l/m 0 min 0 min 0 W/m 35,4 km/h (5 Bft) 97,87 %
25.03.2023 04:38 8,7 C 7,8 C 5,0 C 86 % 1003,7 hPa 0,0 l/m 0 min 0 min 0 W/m 32,2 km/h (5 Bft) 97,87 %
25.03.2023 04:40 8,8 C 7,8 C 4,4 C 86 % 1003,6 hPa 0,0 l/m 0 min 0 min 0 W/m 41,8 km/h (6 Bft) 97,92 %
25.03.2023 04:42 8,8 C 7,8 C 5,0 C 86 % 1003,7 hPa 0,0 l/m 0 min 0 min 0 W/m 19,3 km/h (3 Bft) 97,83 %
25.03.2023 04:44 8,8 C 7,8 C 4,4 C 86 % 1003,6 hPa 0,0 l/m 0 min 0 min 0 W/m 22,5 km/h (4 Bft) 100,00 %
25.03.2023 04:46 8,8 C 7,8 C 4,4 C 86 % 1003,8 hPa 0,0 l/m 0 min 0 min 0 W/m 22,5 km/h (4 Bft) 100,00 %
25.03.2023 04:48 8,8 C 7,8 C 4,4 C 86 % 1003,7 hPa 0,0 l/m 0 min 0 min 0 W/m 29,0 km/h (5 Bft) 100,00 %
25.03.2023 04:50 8,7 C 7,8 C 4,4 C 86 % 1003,6 hPa 0,0 l/m 0 min 0 min 0 W/m 25,7 km/h (4 Bft) 100,00 %
25.03.2023 04:52 8,7 C 7,8 C 4,4 C 86 % 1003,7 hPa 0,0 l/m 0 min 0 min 0 W/m 35,4 km/h (5 Bft) 97,87 %
25.03.2023 04:54 8,7 C 7,8 C 4,4 C 86 % 1003,8 hPa 0,0 l/m 0 min 0 min 0 W/m 29,0 km/h (5 Bft) 97,87 %
25.03.2023 04:56 8,7 C 7,8 C 4,4 C 86 % 1003,7 hPa 0,0 l/m 0 min 0 min 0 W/m 25,7 km/h (4 Bft) 97,83 %
25.03.2023 04:58 8,7 C 7,8 C 4,4 C 86 % 1003,6 hPa 0,0 l/m 0 min 0 min 0 W/m 19,3 km/h (3 Bft) 97,87 %
25.03.2023 05:00 8,7 C 7,8 C 4,4 C 86 % 1003,8 hPa 0,0 l/m 0 min 0 min 0 W/m 35,4 km/h (5 Bft) 95,74 %
25.03.2023 05:02 8,7 C 7,8 C 4,4 C 86 % 1003,6 hPa 0,0 l/m 0 min 2 min 0 W/m 19,3 km/h (3 Bft) 95,74 %
25.03.2023 05:04 8,8 C 7,8 C 4,4 C 86 % 1003,8 hPa 0,0 l/m 0 min 2 min 0 W/m 29,0 km/h (5 Bft) 97,87 %
25.03.2023 05:06 8,7 C 7,8 C 4,4 C 86 % 1003,7 hPa 0,0 l/m 0 min 2 min 0 W/m 12,9 km/h (3 Bft) 94,23 %
25.03.2023 05:08 8,7 C 7,8 C 4,4 C 86 % 1003,6 hPa 0,0 l/m 0 min 2 min 0 W/m 25,7 km/h (4 Bft) 100,00 %
25.03.2023 05:10 8,7 C 7,8 C 4,4 C 86 % 1003,7 hPa 0,0 l/m 0 min 2 min 0 W/m 29,0 km/h (5 Bft) 97,56 %
25.03.2023 05:12 8,7 C 7,8 C 4,4 C 86 % 1003,6 hPa 0,0 l/m 0 min 0 min 0 W/m 16,1 km/h (3 Bft) 95,74 %
25.03.2023 05:14 8,7 C 7,8 C 4,4 C 86 % 1003,5 hPa 0,0 l/m 0 min 0 min 0 W/m 19,3 km/h (3 Bft) 96,15 %
25.03.2023 05:16 8,7 C 7,8 C 4,4 C 86 % 1003,6 hPa 0,0 l/m 0 min 0 min 0 W/m 16,1 km/h (3 Bft) 97,87 %
25.03.2023 05:18 8,7 C 7,8 C 4,4 C 86 % 1003,6 hPa 0,0 l/m 0 min 0 min 0 W/m 22,5 km/h (4 Bft) 97,87 %
25.03.2023 05:20 8,7 C 7,8 C 4,4 C 86 % 1003,6 hPa 0,0 l/m 0 min 0 min 0 W/m 22,5 km/h (4 Bft) 97,87 %
25.03.2023 05:22 8,7 C 7,8 C 4,4 C 86 % 1003,6 hPa 0,0 l/m 0 min 0 min 0 W/m 29,0 km/h (5 Bft) 97,87 %
25.03.2023 05:24 8,7 C 7,8 C 4,4 C 86 % 1003,7 hPa 0,0 l/m 0 min 0 min 0 W/m 48,3 km/h (6 Bft) 100,00 %
25.03.2023 05:26 8,7 C 8,3 C 5,0 C 86 % 1003,6 hPa 0,0 l/m 0 min 0 min 0 W/m 45,1 km/h (6 Bft) 100,00 %
25.03.2023 05:28 8,7 C 8,3 C 5,0 C 85 % 1003,7 hPa 0,0 l/m 0 min 0 min 0 W/m 41,8 km/h (6 Bft) 100,00 %
25.03.2023 05:30 8,8 C 8,3 C 5,0 C 85 % 1003,7 hPa 0,0 l/m 0 min 0 min 0 W/m 19,3 km/h (3 Bft) 100,00 %
25.03.2023 05:32 8,8 C 8,3 C 5,0 C 85 % 1003,6 hPa 0,0 l/m 0 min 0 min 0 W/m 22,5 km/h (4 Bft) 100,00 %
25.03.2023 05:34 8,8 C 8,3 C 5,0 C 85 % 1003,5 hPa 0,0 l/m 0 min 0 min 0 W/m 19,3 km/h (3 Bft) 100,00 %
25.03.2023 05:36 8,8 C 8,3 C 5,0 C 84 % 1003,6 hPa 0,0 l/m 0 min 0 min 0 W/m 19,3 km/h (3 Bft) 100,00 %
25.03.2023 05:38 8,8 C 8,3 C 5,0 C 84 % 1003,8 hPa 0,0 l/m 0 min 0 min 0 W/m 32,2 km/h (5 Bft) 97,87 %
25.03.2023 05:40 8,9 C 8,3 C 5,0 C 83 % 1003,7 hPa 0,0 l/m 0 min 0 min 0 W/m 35,4 km/h (5 Bft) 100,00 %
25.03.2023 05:42 8,9 C 8,3 C 5,0 C 83 % 1003,6 hPa 0,0 l/m 0 min 0 min 0 W/m 19,3 km/h (3 Bft) 97,87 %
25.03.2023 05:44 8,9 C 8,3 C 5,0 C 83 % 1003,6 hPa 0,0 l/m 0 min 0 min 0 W/m 29,0 km/h (5 Bft) 93,62 %
25.03.2023 05:46 8,9 C 8,3 C 5,0 C 83 % 1003,5 hPa 0,0 l/m 0 min 0 min 0 W/m 32,2 km/h (5 Bft) 97,87 %
25.03.2023 05:48 9,0 C 8,3 C 5,0 C 83 % 1003,6 hPa 0,0 l/m 0 min 0 min 0 W/m 45,1 km/h (6 Bft) 97,87 %
25.03.2023 05:50 9,0 C 8,3 C 5,0 C 83 % 1003,6 hPa 0,0 l/m 0 min 0 min 0 W/m 29,0 km/h (5 Bft) 95,74 %
25.03.2023 05:52 9,1 C 8,3 C 5,0 C 83 % 1003,7 hPa 0,0 l/m 0 min 0 min 0 W/m 29,0 km/h (5 Bft) 95,65 %
25.03.2023 05:54 9,1 C 8,3 C 5,0 C 83 % 1003,5 hPa 0,0 l/m 0 min 0 min 0 W/m 41,8 km/h (6 Bft) 95,74 %
25.03.2023 05:56 9,1 C 8,3 C 5,0 C 83 % 1003,6 hPa 0,0 l/m 0 min 2 min 0 W/m 25,7 km/h (4 Bft) 95,74 %
25.03.2023 05:58 9,1 C 8,3 C 4,4 C 83 % 1003,7 hPa 0,0 l/m 0 min 2 min 0 W/m 35,4 km/h (5 Bft) 95,74 %
25.03.2023 06:00 9,1 C 7,8 C 4,4 C 84 % 1003,6 hPa 0,0 l/m 0 min 2 min 0 W/m 12,9 km/h (3 Bft) 94,29 %
25.03.2023 06:02 9,0 C 7,8 C 3,9 C 84 % 1003,6 hPa 0,0 l/m 0 min 2 min 0 W/m 41,8 km/h (6 Bft) 97,87 %
25.03.2023 06:04 8,9 C 7,8 C 3,9 C 84 % 1003,5 hPa 0,0 l/m 0 min 2 min 0 W/m 29,0 km/h (5 Bft) 97,87 %
25.03.2023 06:07 8,8 C 7,8 C 3,9 C 85 % 1003,5 hPa 0,0 l/m 0 min 3 min 0 W/m 35,4 km/h (5 Bft) 97,73 %
25.03.2023 06:08 8,8 C 7,8 C 3,9 C 85 % 1003,5 hPa 0,0 l/m 0 min 0 min 0 W/m 29,0 km/h (5 Bft) 100,00 %
25.03.2023 06:12 8,8 C 7,8 C 3,9 C 85 % 1003,5 hPa 0,0 l/m 0 min 0 min 0 W/m 29,0 km/h (5 Bft) 96,23 %
25.03.2023 06:14 8,7 C 7,8 C 3,9 C 85 % 1003,5 hPa 0,0 l/m 0 min 0 min 0 W/m 25,7 km/h (4 Bft) 91,49 %
25.03.2023 06:16 8,7 C 7,8 C 4,4 C 85 % 1003,5 hPa 0,0 l/m 0 min 2 min 0 W/m 54,7 km/h (7 Bft) 97,87 %
25.03.2023 06:18 8,8 C 7,8 C 4,4 C 84 % 1003,7 hPa 0,0 l/m 0 min 2 min 0 W/m 35,4 km/h (5 Bft) 93,48 %
25.03.2023 06:20 8,8 C 7,8 C 4,4 C 85 % 1003,7 hPa 0,0 l/m 0 min 0 min 0 W/m 35,4 km/h (5 Bft) 97,87 %
25.03.2023 06:22 8,8 C 7,8 C 4,4 C 85 % 1003,6 hPa 0,0 l/m 0 min 2 min 0 W/m 41,8 km/h (6 Bft) 95,74 %
25.03.2023 06:24 8,8 C 7,8 C 4,4 C 85 % 1003,6 hPa 0,0 l/m 0 min 0 min 0 W/m 35,4 km/h (5 Bft) 95,74 %
25.03.2023 06:26 8,8 C 7,8 C 4,4 C 85 % 1003,7 hPa 0,0 l/m 0 min 0 min 0 W/m 22,5 km/h (4 Bft) 97,87 %
25.03.2023 06:28 8,7 C 7,8 C 4,4 C 85 % 1003,7 hPa 0,0 l/m 0 min 0 min 0 W/m 25,7 km/h (4 Bft) 95,74 %
25.03.2023 06:30 8,7 C 7,8 C 4,4 C 85 % 1003,7 hPa 0,0 l/m 0 min 0 min 4 W/m 35,4 km/h (5 Bft) 95,74 %
25.03.2023 06:32 8,7 C 7,8 C 4,4 C 85 % 1003,8 hPa 0,0 l/m 0 min 0 min 5 W/m 45,1 km/h (6 Bft) 95,65 %
25.03.2023 06:34 8,7 C 7,8 C 4,4 C 86 % 1003,8 hPa 0,0 l/m 0 min 0 min 6 W/m 19,3 km/h (3 Bft) 97,87 %
25.03.2023 06:36 8,6 C 7,8 C 4,4 C 86 % 1003,7 hPa 0,0 l/m 0 min 0 min 6 W/m 25,7 km/h (4 Bft) 97,87 %
25.03.2023 06:38 8,6 C 7,8 C 4,4 C 86 % 1003,8 hPa 0,0 l/m 0 min 0 min 8 W/m 19,3 km/h (3 Bft) 95,74 %
25.03.2023 06:40 8,6 C 7,8 C 4,4 C 86 % 1003,7 hPa 0,0 l/m 0 min 0 min 13 W/m 32,2 km/h (5 Bft) 95,74 %
25.03.2023 06:42 8,6 C 7,8 C 4,4 C 86 % 1003,7 hPa 0,0 l/m 0 min 0 min 19 W/m 25,7 km/h (4 Bft) 97,87 %
25.03.2023 06:44 8,6 C 7,8 C 4,4 C 86 % 1003,7 hPa 0,0 l/m 2 min 0 min 28 W/m 22,5 km/h (4 Bft) 95,74 %
25.03.2023 06:46 8,6 C 7,8 C 4,4 C 86 % 1003,7 hPa 0,0 l/m 2 min 0 min 29 W/m 22,5 km/h (4 Bft) 95,65 %
25.03.2023 06:48 8,6 C 7,8 C 4,4 C 86 % 1003,7 hPa 0,0 l/m 2 min 0 min 25 W/m 35,4 km/h (5 Bft) 93,62 %
25.03.2023 06:50 8,6 C 8,3 C 4,4 C 86 % 1003,7 hPa 0,0 l/m 0 min 0 min 19 W/m 41,8 km/h (6 Bft) 93,62 %
25.03.2023 06:52 8,7 C 8,3 C 4,4 C 86 % 1003,8 hPa 0,0 l/m 0 min 0 min 15 W/m 38,6 km/h (5 Bft) 93,62 %
25.03.2023 06:54 8,7 C 8,3 C 4,4 C 86 % 1003,8 hPa 0,0 l/m 0 min 0 min 11 W/m 35,4 km/h (5 Bft) 95,74 %
25.03.2023 06:56 8,8 C 8,3 C 5,0 C 85 % 1003,8 hPa 0,0 l/m 0 min 0 min 7 W/m 25,7 km/h (4 Bft) 95,74 %
25.03.2023 06:58 8,8 C 8,3 C 5,0 C 85 % 1003,8 hPa 0,0 l/m 0 min 0 min 7 W/m 29,0 km/h (5 Bft) 95,74 %
25.03.2023 07:00 8,8 C 8,3 C 4,4 C 85 % 1003,9 hPa 0,0 l/m 0 min 2 min 10 W/m 51,5 km/h (7 Bft) 95,65 %
25.03.2023 07:02 8,8 C 7,8 C 4,4 C 85 % 1003,8 hPa 0,0 l/m 0 min 2 min 12 W/m 29,0 km/h (5 Bft) 97,87 %
25.03.2023 07:04 8,8 C 7,8 C 4,4 C 86 % 1003,7 hPa 0,0 l/m 0 min 2 min 16 W/m 32,2 km/h (5 Bft) 95,35 %
25.03.2023 07:06 8,8 C 7,8 C 4,4 C 86 % 1003,8 hPa 0,0 l/m 0 min 0 min 23 W/m 19,3 km/h (3 Bft) 94,83 %
25.03.2023 07:08 8,8 C 7,8 C 4,4 C 86 % 1003,9 hPa 0,0 l/m 0 min 0 min 25 W/m 16,1 km/h (3 Bft) 94,29 %
25.03.2023 07:10 8,8 C 7,8 C 4,4 C 86 % 1003,9 hPa 0,0 l/m 0 min 2 min 31 W/m 22,5 km/h (4 Bft) 95,74 %
25.03.2023 07:12 8,7 C 7,8 C 4,4 C 87 % 1003,8 hPa 0,0 l/m 0 min 2 min 44 W/m 32,2 km/h (5 Bft) 95,74 %
25.03.2023 07:14 8,7 C 7,8 C 4,4 C 87 % 1003,8 hPa 0,0 l/m 0 min 2 min 51 W/m 29,0 km/h (5 Bft) 95,74 %
25.03.2023 07:16 8,7 C 7,8 C 4,4 C 87 % 1003,9 hPa 0,0 l/m 0 min 2 min 53 W/m 22,5 km/h (4 Bft) 97,87 %
25.03.2023 07:18 8,6 C 7,8 C 4,4 C 88 % 1003,9 hPa 0,0 l/m 0 min 2 min 44 W/m 22,5 km/h (4 Bft) 97,83 %
25.03.2023 07:20 8,6 C 7,8 C 4,4 C 88 % 1004,0 hPa 0,0 l/m 0 min 2 min 30 W/m 16,1 km/h (3 Bft) 100,00 %
25.03.2023 07:22 8,6 C 7,8 C 4,4 C 88 % 1004,0 hPa 0,0 l/m 0 min 2 min 20 W/m 35,4 km/h (5 Bft) 100,00 %
25.03.2023 07:24 8,5 C 7,8 C 3,9 C 88 % 1004,0 hPa 0,0 l/m 0 min 2 min 15 W/m 19,3 km/h (3 Bft) 97,87 %
25.03.2023 07:26 8,5 C 7,2 C 3,9 C 89 % 1003,9 hPa 0,0 l/m 0 min 2 min 15 W/m 22,5 km/h (4 Bft) 100,00 %
25.03.2023 07:28 8,4 C 7,2 C 3,3 C 89 % 1003,9 hPa 0,0 l/m 0 min 2 min 18 W/m 16,1 km/h (3 Bft) 100,00 %
25.03.2023 07:30 8,4 C 7,2 C 3,3 C 90 % 1003,9 hPa 0,0 l/m 0 min 0 min 22 W/m 25,7 km/h (4 Bft) 100,00 %
25.03.2023 07:32 8,3 C 7,2 C 3,3 C 90 % 1003,9 hPa 0,0 l/m 0 min 0 min 25 W/m 35,4 km/h (5 Bft) 100,00 %
25.03.2023 07:34 8,3 C 7,2 C 3,3 C 90 % 1004,0 hPa 0,0 l/m 0 min 0 min 43 W/m 22,5 km/h (4 Bft) 100,00 %
25.03.2023 07:36 8,2 C 7,2 C 3,3 C 91 % 1004,0 hPa 0,0 l/m 0 min 0 min 69 W/m 38,6 km/h (5 Bft) 100,00 %
25.03.2023 07:38 8,2 C 7,2 C 3,3 C 91 % 1004,0 hPa 0,0 l/m 0 min 0 min 82 W/m 19,3 km/h (3 Bft) 97,87 %
25.03.2023 07:40 8,2 C 7,2 C 3,3 C 91 % 1004,0 hPa 0,2 l/m 0 min 0 min 85 W/m 22,5 km/h (4 Bft) 100,00 %
25.03.2023 07:42 8,1 C 7,2 C 3,3 C 92 % 1004,0 hPa 0,0 l/m 0 min 0 min 78 W/m 29,0 km/h (5 Bft) 100,00 %
25.03.2023 07:44 8,1 C 7,2 C 3,3 C 92 % 1004,0 hPa 0,0 l/m 0 min 0 min 83 W/m 25,7 km/h (4 Bft) 100,00 %
25.03.2023 07:46 8,1 C 7,2 C 3,3 C 92 % 1004,1 hPa 0,0 l/m 0 min 0 min 78 W/m 32,2 km/h (5 Bft) 100,00 %
25.03.2023 07:48 8,1 C 7,2 C 3,3 C 92 % 1004,0 hPa 0,0 l/m 0 min 0 min 68 W/m 25,7 km/h (4 Bft) 100,00 %
25.03.2023 07:50 8,1 C 7,2 C 3,3 C 92 % 1004,0 hPa 0,0 l/m 0 min 0 min 65 W/m 22,5 km/h (4 Bft) 100,00 %
25.03.2023 07:52 8,1 C 7,8 C 3,3 C 93 % 1004,0 hPa 0,0 l/m 0 min 0 min 75 W/m 29,0 km/h (5 Bft) 100,00 %
25.03.2023 07:54 8,1 C 7,8 C 3,3 C 93 % 1004,0 hPa 0,0 l/m 0 min 0 min 91 W/m 25,7 km/h (4 Bft) 100,00 %
25.03.2023 07:56 8,1 C 7,8 C 3,3 C 93 % 1004,1 hPa 0,0 l/m 0 min 0 min 97 W/m 29,0 km/h (5 Bft) 100,00 %
25.03.2023 07:58 8,1 C 7,8 C 3,9 C 93 % 1004,1 hPa 0,0 l/m 0 min 0 min 97 W/m 35,4 km/h (5 Bft) 100,00 %
25.03.2023 08:00 8,1 C 7,8 C 3,9 C 93 % 1004,0 hPa 0,0 l/m 0 min 0 min 99 W/m 22,5 km/h (4 Bft) 100,00 %
25.03.2023 08:02 8,2 C 7,8 C 3,9 C 93 % 1004,0 hPa 0,0 l/m 0 min 0 min 101 W/m 29,0 km/h (5 Bft) 97,87 %
25.03.2023 08:04 8,2 C 8,3 C 3,9 C 93 % 1004,1 hPa 0,0 l/m 0 min 0 min 100 W/m 19,3 km/h (3 Bft) 97,87 %
25.03.2023 08:06 8,2 C 8,3 C 3,9 C 93 % 1004,0 hPa 0,0 l/m 0 min 0 min 105 W/m 22,5 km/h (4 Bft) 100,00 %
25.03.2023 08:08 8,2 C 8,3 C 3,9 C 93 % 1003,9 hPa 0,0 l/m 0 min 0 min 119 W/m 29,0 km/h (5 Bft) 100,00 %
25.03.2023 08:10 8,3 C 8,3 C 3,9 C 93 % 1004,0 hPa 0,0 l/m 0 min 0 min 120 W/m 22,5 km/h (4 Bft) 100,00 %
25.03.2023 08:12 8,3 C 8,3 C 3,9 C 93 % 1004,0 hPa 0,0 l/m 0 min 0 min 114 W/m 35,4 km/h (5 Bft) 95,74 %
25.03.2023 08:14 8,3 C 8,3 C 4,4 C 92 % 1003,9 hPa 0,0 l/m 0 min 0 min 127 W/m 16,1 km/h (3 Bft) 97,87 %
25.03.2023 08:16 8,4 C 8,3 C 4,4 C 92 % 1003,9 hPa 0,0 l/m 0 min 0 min 104 W/m 19,3 km/h (3 Bft) 100,00 %
25.03.2023 08:18 8,4 C 8,3 C 4,4 C 92 % 1003,9 hPa 0,0 l/m 0 min 0 min 92 W/m 32,2 km/h (5 Bft) 100,00 %
25.03.2023 08:20 8,5 C 8,3 C 4,4 C 92 % 1003,9 hPa 0,0 l/m 0 min 0 min 87 W/m 19,3 km/h (3 Bft) 100,00 %
25.03.2023 08:22 8,5 C 8,3 C 4,4 C 91 % 1003,9 hPa 0,0 l/m 0 min 0 min 78 W/m 32,2 km/h (5 Bft) 100,00 %
25.03.2023 08:24 8,6 C 8,3 C 4,4 C 91 % 1003,9 hPa 0,0 l/m 0 min 0 min 62 W/m 32,2 km/h (5 Bft) 97,87 %
25.03.2023 08:26 8,6 C 8,3 C 4,4 C 91 % 1004,0 hPa 0,0 l/m 0 min 0 min 47 W/m 12,9 km/h (3 Bft) 100,00 %
25.03.2023 08:28 8,6 C 8,3 C 4,4 C 91 % 1003,9 hPa 0,0 l/m 0 min 0 min 40 W/m 19,3 km/h (3 Bft) 93,62 %
25.03.2023 08:30 8,6 C 8,3 C 4,4 C 90 % 1004,0 hPa 0,0 l/m 0 min 0 min 29 W/m 19,3 km/h (3 Bft) 100,00 %
25.03.2023 08:32 8,6 C 8,3 C 4,4 C 90 % 1004,0 hPa 0,0 l/m 0 min 0 min 26 W/m 19,3 km/h (3 Bft) 100,00 %
25.03.2023 08:34 8,6 C 8,3 C 4,4 C 90 % 1004,0 hPa 0,0 l/m 0 min 0 min 26 W/m 29,0 km/h (5 Bft) 100,00 %
25.03.2023 08:36 8,7 C 8,3 C 5,0 C 89 % 1003,9 hPa 0,0 l/m 0 min 0 min 28 W/m 12,9 km/h (3 Bft) 100,00 %
25.03.2023 08:38 8,7 C 8,3 C 5,0 C 89 % 1004,0 hPa 0,0 l/m 0 min 0 min 33 W/m 32,2 km/h (5 Bft) 97,87 %
25.03.2023 08:40 8,7 C 8,3 C 5,0 C 89 % 1004,0 hPa 0,0 l/m 0 min 0 min 63 W/m 22,5 km/h (4 Bft) 95,74 %
25.03.2023 08:42 8,7 C 8,3 C 5,0 C 88 % 1004,0 hPa 0,0 l/m 0 min 0 min 82 W/m 32,2 km/h (5 Bft) 95,74 %
25.03.2023 08:44 8,7 C 8,3 C 5,0 C 88 % 1004,0 hPa 0,0 l/m 0 min 0 min 54 W/m 41,8 km/h (6 Bft) 95,74 %
25.03.2023 08:46 8,7 C 8,3 C 5,0 C 88 % 1004,1 hPa 0,0 l/m 0 min 0 min 39 W/m 38,6 km/h (5 Bft) 93,62 %
25.03.2023 08:48 8,8 C 8,3 C 5,0 C 88 % 1004,1 hPa 0,0 l/m 0 min 0 min 42 W/m 19,3 km/h (3 Bft) 93,48 %
25.03.2023 08:50 8,8 C 8,3 C 5,0 C 87 % 1004,2 hPa 0,0 l/m 0 min 0 min 62 W/m 29,0 km/h (5 Bft) 93,62 %
25.03.2023 08:52 8,8 C 8,3 C 5,0 C 87 % 1004,1 hPa 0,0 l/m 0 min 0 min 63 W/m 19,3 km/h (3 Bft) 95,74 %
25.03.2023 08:54 8,8 C 8,3 C 5,0 C 87 % 1004,1 hPa 0,0 l/m 0 min 0 min 71 W/m 25,7 km/h (4 Bft) 95,74 %
25.03.2023 08:56 8,8 C 8,3 C 5,0 C 87 % 1004,2 hPa 0,0 l/m 0 min 0 min 83 W/m 32,2 km/h (5 Bft) 93,62 %
25.03.2023 08:58 8,8 C 8,3 C 5,0 C 87 % 1004,1 hPa 0,0 l/m 0 min 0 min 97 W/m 25,7 km/h (4 Bft) 91,49 %
25.03.2023 09:00 8,9 C 8,9 C 5,0 C 87 % 1004,1 hPa 0,0 l/m 0 min 0 min 138 W/m 19,3 km/h (3 Bft) 95,74 %
25.03.2023 09:02 8,9 C 8,9 C 5,0 C 86 % 1004,1 hPa 0,0 l/m 0 min 0 min 103 W/m 19,3 km/h (3 Bft) 95,74 %
25.03.2023 09:04 9,0 C 8,9 C 5,6 C 86 % 1004,1 hPa 0,0 l/m 0 min 0 min 125 W/m 19,3 km/h (3 Bft) 89,13 %
25.03.2023 09:06 9,0 C 9,4 C 5,6 C 86 % 1004,2 hPa 0,0 l/m 0 min 0 min 147 W/m 22,5 km/h (4 Bft) 93,62 %
25.03.2023 09:08 9,1 C 10,0 C 5,6 C 86 % 1004,2 hPa 0,0 l/m 0 min 0 min 147 W/m 29,0 km/h (5 Bft) 93,62 %
25.03.2023 09:10 9,1 C 11,1 C 6,7 C 86 % 1004,2 hPa 0,0 l/m 0 min 0 min 161 W/m 16,1 km/h (3 Bft) 95,74 %
25.03.2023 09:12 9,2 C 12,2 C 7,2 C 86 % 1004,2 hPa 0,0 l/m 2 min 0 min 257 W/m 32,2 km/h (5 Bft) 93,62 %
25.03.2023 09:14 9,3 C 12,8 C 7,8 C 86 % 1004,2 hPa 0,0 l/m 2 min 0 min 287 W/m 25,7 km/h (4 Bft) 97,87 %
25.03.2023 09:16 9,4 C 11,7 C 7,2 C 85 % 1004,3 hPa 0,0 l/m 0 min 0 min 186 W/m 25,7 km/h (4 Bft) 93,48 %
25.03.2023 09:18 9,5 C 11,1 C 6,7 C 84 % 1004,4 hPa 0,0 l/m 2 min 0 min 220 W/m 29,0 km/h (5 Bft) 95,74 %
25.03.2023 09:20 9,6 C 10,6 C 6,7 C 84 % 1004,3 hPa 0,0 l/m 2 min 0 min 255 W/m 22,5 km/h (4 Bft) 95,74 %
25.03.2023 09:22 9,6 C 11,1 C 7,2 C 84 % 1004,4 hPa 0,0 l/m 0 min 0 min 206 W/m 12,9 km/h (3 Bft) 93,62 %
25.03.2023 09:24 9,7 C 10,6 C 6,7 C 84 % 1004,4 hPa 0,0 l/m 0 min 0 min 159 W/m 22,5 km/h (4 Bft) 95,74 %
25.03.2023 09:26 9,7 C 10,0 C 6,7 C 84 % 1004,3 hPa 0,0 l/m 0 min 0 min 153 W/m 19,3 km/h (3 Bft) 93,62 %
25.03.2023 09:28 9,7 C 10,0 C 6,7 C 84 % 1004,4 hPa 0,0 l/m 0 min 0 min 125 W/m 6,4 km/h (2 Bft) 93,62 %
25.03.2023 09:30 9,7 C 10,0 C 6,1 C 83 % 1004,4 hPa 0,0 l/m 0 min 0 min 106 W/m 25,7 km/h (4 Bft) 97,83 %
25.03.2023 09:32 9,7 C 9,4 C 6,1 C 83 % 1004,4 hPa 0,0 l/m 0 min 0 min 96 W/m 51,5 km/h (7 Bft) 95,74 %
25.03.2023 09:34 9,7 C 9,4 C 6,1 C 83 % 1004,4 hPa 0,0 l/m 0 min 0 min 88 W/m 12,9 km/h (3 Bft) 97,87 %
25.03.2023 09:36 9,7 C 9,4 C 6,1 C 83 % 1004,5 hPa 0,0 l/m 0 min 0 min 100 W/m 19,3 km/h (3 Bft) 95,74 %
25.03.2023 09:38 9,7 C 9,4 C 6,1 C 83 % 1004,4 hPa 0,0 l/m 0 min 0 min 145 W/m 41,8 km/h (6 Bft) 95,74 %
25.03.2023 09:40 9,7 C 9,4 C 6,1 C 83 % 1004,4 hPa 0,0 l/m 0 min 0 min 184 W/m 22,5 km/h (4 Bft) 97,87 %
25.03.2023 09:42 9,8 C 10,0 C 6,1 C 83 % 1004,4 hPa 0,0 l/m 0 min 0 min 191 W/m 19,3 km/h (3 Bft) 97,87 %
25.03.2023 09:44 9,8 C 10,6 C 6,7 C 83 % 1004,4 hPa 0,0 l/m 2 min 0 min 254 W/m 12,9 km/h (3 Bft) 95,65 %
25.03.2023 09:46 9,9 C 10,6 C 6,7 C 83 % 1004,5 hPa 0,0 l/m 2 min 0 min 270 W/m 16,1 km/h (3 Bft) 97,87 %
25.03.2023 09:48 9,9 C 10,6 C 6,7 C 82 % 1004,4 hPa 0,0 l/m 0 min 0 min 220 W/m 25,7 km/h (4 Bft) 97,87 %
25.03.2023 09:50 10,0 C 10,6 C 6,7 C 82 % 1004,5 hPa 0,0 l/m 0 min 0 min 203 W/m 35,4 km/h (5 Bft) 93,62 %
25.03.2023 09:52 10,1 C 10,0 C 6,7 C 82 % 1004,5 hPa 0,0 l/m 0 min 0 min 140 W/m 22,5 km/h (4 Bft) 97,87 %
25.03.2023 09:54 10,1 C 10,0 C 6,7 C 82 % 1004,5 hPa 0,0 l/m 0 min 0 min 127 W/m 45,1 km/h (6 Bft) 97,87 %
25.03.2023 09:56 10,1 C 10,0 C 6,7 C 82 % 1004,4 hPa 0,0 l/m 0 min 0 min 181 W/m 32,2 km/h (5 Bft) 95,74 %
25.03.2023 09:58 10,1 C 10,0 C 6,7 C 82 % 1004,4 hPa 0,0 l/m 0 min 0 min 149 W/m 22,5 km/h (4 Bft) 100,00 %
25.03.2023 10:00 10,1 C 10,0 C 6,7 C 82 % 1004,4 hPa 0,0 l/m 0 min 0 min 146 W/m 16,1 km/h (3 Bft) 97,87 %
25.03.2023 10:02 10,1 C 10,0 C 6,7 C 82 % 1004,5 hPa 0,0 l/m 0 min 0 min 132 W/m 19,3 km/h (3 Bft) 95,74 %
25.03.2023 10:04 10,1 C 10,0 C 6,7 C 82 % 1004,4 hPa 0,0 l/m 0 min 0 min 149 W/m 16,1 km/h (3 Bft) 80,85 %
25.03.2023 10:06 10,1 C 10,0 C 6,7 C 81 % 1004,4 hPa 0,0 l/m 0 min 0 min 141 W/m 35,4 km/h (5 Bft) 59,57 %
25.03.2023 10:08 10,1 C 10,0 C 6,7 C 81 % 1004,5 hPa 0,0 l/m 0 min 0 min 178 W/m 35,4 km/h (5 Bft) 100,00 %
25.03.2023 10:10 10,2 C 10,0 C 6,7 C 80 % 1004,4 hPa 0,0 l/m 0 min 0 min 175 W/m 19,3 km/h (3 Bft) 100,00 %
25.03.2023 10:12 10,2 C 10,0 C 6,7 C 81 % 1004,4 hPa 0,0 l/m 0 min 0 min 169 W/m 22,5 km/h (4 Bft) 100,00 %
25.03.2023 10:14 10,2 C 10,0 C 6,7 C 81 % 1004,3 hPa 0,0 l/m 0 min 0 min 151 W/m 22,5 km/h (4 Bft) 100,00 %
25.03.2023 10:16 10,3 C 10,0 C 6,7 C 81 % 1004,4 hPa 0,0 l/m 0 min 0 min 148 W/m 19,3 km/h (3 Bft) 97,87 %
25.03.2023 10:18 10,3 C 10,0 C 6,7 C 80 % 1004,4 hPa 0,0 l/m 0 min 0 min 126 W/m 38,6 km/h (5 Bft) 100,00 %
25.03.2023 10:20 10,3 C 10,0 C 6,7 C 79 % 1004,4 hPa 0,0 l/m 0 min 0 min 112 W/m 35,4 km/h (5 Bft) 100,00 %
25.03.2023 10:22 10,3 C 10,0 C 6,7 C 79 % 1004,5 hPa 0,0 l/m 0 min 0 min 111 W/m 25,7 km/h (4 Bft) 100,00 %
25.03.2023 10:24 10,3 C 10,0 C 6,7 C 79 % 1004,4 hPa 0,0 l/m 0 min 0 min 144 W/m 35,4 km/h (5 Bft) 100,00 %
25.03.2023 10:26 10,3 C 10,0 C 6,7 C 79 % 1004,5 hPa 0,0 l/m 0 min 0 min 161 W/m 22,5 km/h (4 Bft) 100,00 %
25.03.2023 10:28 10,3 C 10,0 C 6,7 C 79 % 1004,5 hPa 0,0 l/m 0 min 0 min 150 W/m 25,7 km/h (4 Bft) 100,00 %
25.03.2023 10:30 10,3 C 10,0 C 6,7 C 79 % 1004,5 hPa 0,0 l/m 0 min 0 min 121 W/m 22,5 km/h (4 Bft) 97,87 %
25.03.2023 10:32 10,3 C 10,0 C 6,7 C 79 % 1004,5 hPa 0,0 l/m 0 min 0 min 161 W/m 41,8 km/h (6 Bft) 100,00 %
25.03.2023 10:34 10,3 C 10,0 C 6,7 C 79 % 1004,5 hPa 0,0 l/m 0 min 0 min 182 W/m 25,7 km/h (4 Bft) 100,00 %
25.03.2023 10:36 10,3 C 10,6 C 6,7 C 79 % 1004,6 hPa 0,0 l/m 0 min 0 min 169 W/m 22,5 km/h (4 Bft) 97,87 %
25.03.2023 10:38 10,4 C 10,6 C 6,7 C 79 % 1004,6 hPa 0,0 l/m 0 min 0 min 174 W/m 29,0 km/h (5 Bft) 100,00 %
25.03.2023 10:40 10,4 C 10,6 C 6,7 C 79 % 1004,5 hPa 0,0 l/m 0 min 0 min 156 W/m 25,7 km/h (4 Bft) 95,74 %
25.03.2023 10:42 10,4 C 10,6 C 6,7 C 79 % 1004,6 hPa 0,0 l/m 0 min 0 min 135 W/m 16,1 km/h (3 Bft) 95,74 %
25.03.2023 10:44 10,4 C 10,6 C 6,7 C 80 % 1004,5 hPa 0,0 l/m 0 min 0 min 143 W/m 25,7 km/h (4 Bft) 93,62 %
25.03.2023 10:46 10,4 C 10,0 C 6,7 C 79 % 1004,5 hPa 0,0 l/m 0 min 0 min 152 W/m 25,7 km/h (4 Bft) 97,87 %
25.03.2023 10:48 10,4 C 10,0 C 6,7 C 79 % 1004,5 hPa 0,0 l/m 0 min 0 min 178 W/m 32,2 km/h (5 Bft) 97,87 %
25.03.2023 10:50 10,4 C 10,6 C 6,7 C 79 % 1004,5 hPa 0,0 l/m 0 min 0 min 197 W/m 29,0 km/h (5 Bft) 95,74 %
25.03.2023 10:52 10,4 C 10,6 C 6,7 C 80 % 1004,5 hPa 0,0 l/m 0 min 0 min 236 W/m 32,2 km/h (5 Bft) 97,83 %
25.03.2023 10:54 10,5 C 10,6 C 7,2 C 80 % 1004,5 hPa 0,0 l/m 0 min 0 min 238 W/m 22,5 km/h (4 Bft) 97,87 %
25.03.2023 10:56 10,6 C 10,6 C 7,2 C 80 % 1004,6 hPa 0,0 l/m 0 min 0 min 213 W/m 29,0 km/h (5 Bft) 97,87 %
25.03.2023 10:58 10,6 C 10,6 C 7,2 C 79 % 1004,6 hPa 0,0 l/m 0 min 0 min 177 W/m 32,2 km/h (5 Bft) 95,74 %
25.03.2023 11:00 10,6 C 10,6 C 7,2 C 79 % 1004,6 hPa 0,0 l/m 0 min 0 min 177 W/m 32,2 km/h (5 Bft) 93,62 %
25.03.2023 11:02 10,7 C 10,6 C 7,2 C 79 % 1004,6 hPa 0,0 l/m 0 min 0 min 223 W/m 41,8 km/h (6 Bft) 95,74 %
25.03.2023 11:04 10,7 C 10,6 C 7,2 C 79 % 1004,6 hPa 0,0 l/m 0 min 0 min 201 W/m 22,5 km/h (4 Bft) 97,83 %
25.03.2023 11:06 10,7 C 10,6 C 6,7 C 79 % 1004,6 hPa 0,0 l/m 0 min 0 min 161 W/m 19,3 km/h (3 Bft) 97,87 %
25.03.2023 11:08 10,7 C 10,6 C 6,7 C 79 % 1004,6 hPa 0,0 l/m 0 min 0 min 145 W/m 22,5 km/h (4 Bft) 97,87 %
25.03.2023 11:10 10,7 C 10,6 C 6,7 C 78 % 1004,7 hPa 0,0 l/m 0 min 0 min 126 W/m 29,0 km/h (5 Bft) 95,74 %
25.03.2023 11:12 10,7 C 10,6 C 6,7 C 78 % 1004,6 hPa 0,0 l/m 0 min 0 min 138 W/m 32,2 km/h (5 Bft) 97,87 %
25.03.2023 11:14 10,7 C 10,6 C 6,7 C 78 % 1004,6 hPa 0,0 l/m 0 min 0 min 169 W/m 22,5 km/h (4 Bft) 100,00 %
25.03.2023 11:16 10,7 C 10,6 C 6,7 C 79 % 1004,7 hPa 0,0 l/m 0 min 0 min 177 W/m 29,0 km/h (5 Bft) 100,00 %
25.03.2023 11:18 10,7 C 10,6 C 6,7 C 78 % 1004,8 hPa 0,0 l/m 0 min 0 min 205 W/m 32,2 km/h (5 Bft) 97,83 %
25.03.2023 11:20 10,7 C 10,6 C 7,2 C 79 % 1004,7 hPa 0,0 l/m 0 min 0 min 223 W/m 35,4 km/h (5 Bft) 100,00 %
25.03.2023 11:22 10,8 C 11,1 C 7,2 C 78 % 1004,7 hPa 0,0 l/m 0 min 0 min 216 W/m 25,7 km/h (4 Bft) 95,74 %
25.03.2023 11:24 10,8 C 11,1 C 7,2 C 79 % 1004,7 hPa 0,0 l/m 0 min 0 min 173 W/m 19,3 km/h (3 Bft) 97,87 %
25.03.2023 11:26 10,8 C 11,1 C 7,2 C 78 % 1004,7 hPa 0,0 l/m 0 min 0 min 151 W/m 38,6 km/h (5 Bft) 97,87 %
25.03.2023 11:28 10,9 C 11,1 C 7,2 C 78 % 1004,7 hPa 0,0 l/m 0 min 0 min 206 W/m 29,0 km/h (5 Bft) 97,87 %
25.03.2023 11:30 10,9 C 11,1 C 7,2 C 78 % 1004,7 hPa 0,0 l/m 0 min 0 min 200 W/m 19,3 km/h (3 Bft) 97,87 %
25.03.2023 11:32 10,9 C 11,1 C 7,2 C 78 % 1004,7 hPa 0,0 l/m 0 min 0 min 235 W/m 19,3 km/h (3 Bft) 97,83 %
25.03.2023 11:34 11,0 C 11,1 C 7,2 C 78 % 1004,7 hPa 0,0 l/m 0 min 0 min 242 W/m 22,5 km/h (4 Bft) 95,74 %
25.03.2023 11:36 11,0 C 11,1 C 7,2 C 78 % 1004,8 hPa 0,0 l/m 0 min 0 min 205 W/m 22,5 km/h (4 Bft) 97,14 %
25.03.2023 11:38 11,0 C 11,1 C 7,2 C 78 % 1005,0 hPa 0,0 l/m 0 min 0 min 172 W/m 38,6 km/h (5 Bft) 97,96 %
25.03.2023 11:40 11,0 C 10,6 C 6,7 C 79 % 1004,9 hPa 0,0 l/m 0 min 2 min 194 W/m 25,7 km/h (4 Bft) 95,74 %
25.03.2023 11:42 10,9 C 10,6 C 6,1 C 80 % 1004,9 hPa 0,0 l/m 0 min 2 min 177 W/m 25,7 km/h (4 Bft) 97,83 %
25.03.2023 11:44 10,8 C 10,0 C 5,6 C 81 % 1004,9 hPa 0,0 l/m 0 min 2 min 124 W/m 32,2 km/h (5 Bft) 93,62 %
25.03.2023 11:46 10,7 C 10,0 C 5,6 C 82 % 1005,0 hPa 0,0 l/m 0 min 2 min 108 W/m 29,0 km/h (5 Bft) 95,74 %
25.03.2023 11:48 10,6 C 10,0 C 5,0 C 83 % 1004,9 hPa 0,0 l/m 0 min 2 min 133 W/m 22,5 km/h (4 Bft) 97,87 %
25.03.2023 11:50 10,4 C 10,0 C 5,0 C 83 % 1004,8 hPa 0,0 l/m 0 min 2 min 197 W/m 16,1 km/h (3 Bft) 95,74 %
25.03.2023 11:52 10,4 C 10,6 C 5,6 C 84 % 1004,8 hPa 0,0 l/m 0 min 2 min 255 W/m 12,9 km/h (3 Bft) 95,74 %
25.03.2023 11:54 10,3 C 10,6 C 5,6 C 85 % 1004,8 hPa 0,0 l/m 0 min 2 min 230 W/m 16,1 km/h (3 Bft) 95,74 %
25.03.2023 11:56 10,3 C 10,6 C 5,6 C 85 % 1004,8 hPa 0,0 l/m 0 min 2 min 222 W/m 12,9 km/h (3 Bft) 97,83 %
25.03.2023 11:58 10,3 C 10,0 C 5,6 C 86 % 1004,8 hPa 0,2 l/m 0 min 2 min 150 W/m 16,1 km/h (3 Bft) 97,87 %
25.03.2023 12:00 10,3 C 10,0 C 5,0 C 86 % 1004,8 hPa 0,0 l/m 0 min 2 min 122 W/m 12,9 km/h (3 Bft) 97,87 %
25.03.2023 12:02 10,3 C 10,0 C 5,0 C 86 % 1004,8 hPa 0,0 l/m 0 min 2 min 80 W/m 16,1 km/h (3 Bft) 93,62 %
25.03.2023 12:04 10,2 C 9,4 C 4,4 C 86 % 1004,8 hPa 0,2 l/m 0 min 2 min 48 W/m 9,7 km/h (2 Bft) 95,74 %
25.03.2023 12:07 10,1 C 9,4 C 4,4 C 87 % 1004,8 hPa 0,0 l/m 0 min 3 min 39 W/m 9,7 km/h (2 Bft) 97,14 %
25.03.2023 12:08 10,1 C 8,9 C 4,4 C 87 % 1004,8 hPa 0,0 l/m 0 min 1 min 38 W/m 16,1 km/h (3 Bft) 95,65 %
25.03.2023 12:12 9,9 C 8,9 C 4,4 C 88 % 1004,9 hPa 0,0 l/m 0 min 4 min 75 W/m 12,9 km/h (3 Bft) 96,55 %
25.03.2023 12:14 9,8 C 8,9 C 4,4 C 88 % 1005,0 hPa 0,0 l/m 0 min 2 min 79 W/m 12,9 km/h (3 Bft) 95,74 %
25.03.2023 12:16 9,6 C 8,3 C 4,4 C 89 % 1005,4 hPa 0,2 l/m 0 min 2 min 56 W/m 16,1 km/h (3 Bft) 92,45 %
25.03.2023 12:18 9,5 C 8,3 C 4,4 C 90 % 1005,4 hPa 0,2 l/m 0 min 2 min 71 W/m 16,1 km/h (3 Bft) 97,87 %
25.03.2023 12:20 9,3 C 8,3 C 4,4 C 90 % 1005,1 hPa 0,0 l/m 0 min 2 min 132 W/m 19,3 km/h (3 Bft) 95,74 %
25.03.2023 12:22 9,3 C 9,4 C 5,0 C 91 % 1005,1 hPa 0,0 l/m 0 min 2 min 188 W/m 19,3 km/h (3 Bft) 95,74 %
25.03.2023 12:24 9,3 C 9,4 C 5,0 C 91 % 1005,1 hPa 0,0 l/m 0 min 0 min 218 W/m 16,1 km/h (3 Bft) 96,00 %
25.03.2023 12:26 9,4 C 10,6 C 5,6 C 92 % 1005,0 hPa 0,0 l/m 2 min 0 min 362 W/m 29,0 km/h (5 Bft) 95,65 %
25.03.2023 12:28 9,6 C 11,7 C 5,6 C 92 % 1005,0 hPa 0,0 l/m 2 min 0 min 712 W/m 19,3 km/h (3 Bft) 97,87 %
25.03.2023 12:30 9,7 C 11,7 C 5,6 C 92 % 1004,8 hPa 0,0 l/m 2 min 0 min 648 W/m 25,7 km/h (4 Bft) 97,87 %
25.03.2023 12:32 10,0 C 12,8 C 6,1 C 92 % 1004,8 hPa 0,0 l/m 2 min 0 min 753 W/m 19,3 km/h (3 Bft) 93,62 %
25.03.2023 12:34 10,2 C 12,8 C 6,1 C 93 % 1004,8 hPa 0,0 l/m 2 min 0 min 546 W/m 12,9 km/h (3 Bft) 97,87 %
25.03.2023 12:36 10,3 C 11,1 C 5,6 C 92 % 1004,9 hPa 0,0 l/m 0 min 0 min 156 W/m 22,5 km/h (4 Bft) 95,74 %
25.03.2023 12:38 10,3 C 10,6 C 5,6 C 91 % 1005,0 hPa 0,0 l/m 0 min 2 min 143 W/m 25,7 km/h (4 Bft) 95,74 %
25.03.2023 12:40 10,3 C 10,6 C 5,6 C 90 % 1005,1 hPa 0,0 l/m 0 min 2 min 183 W/m 19,3 km/h (3 Bft) 95,65 %
25.03.2023 12:42 10,3 C 10,0 C 5,6 C 90 % 1005,2 hPa 0,0 l/m 0 min 2 min 134 W/m 19,3 km/h (3 Bft) 93,62 %
25.03.2023 12:44 10,1 C 9,4 C 4,4 C 89 % 1005,1 hPa 0,2 l/m 0 min 2 min 98 W/m 22,5 km/h (4 Bft) 95,74 %
25.03.2023 12:46 10,0 C 9,4 C 4,4 C 89 % 1005,0 hPa 0,0 l/m 0 min 2 min 92 W/m 29,0 km/h (5 Bft) 93,62 %
25.03.2023 12:48 9,8 C 8,9 C 4,4 C 88 % 1005,2 hPa 0,0 l/m 0 min 2 min 98 W/m 25,7 km/h (4 Bft) 95,74 %
25.03.2023 12:50 9,8 C 8,9 C 4,4 C 89 % 1005,2 hPa 0,2 l/m 0 min 2 min 178 W/m 32,2 km/h (5 Bft) 95,74 %
25.03.2023 12:52 9,6 C 8,9 C 4,4 C 89 % 1005,3 hPa 0,0 l/m 0 min 2 min 239 W/m 38,6 km/h (5 Bft) 95,65 %
25.03.2023 12:54 9,6 C 9,4 C 4,4 C 89 % 1005,3 hPa 0,0 l/m 0 min 2 min 215 W/m 19,3 km/h (3 Bft) 95,74 %
25.03.2023 12:56 9,5 C 9,4 C 4,4 C 90 % 1005,2 hPa 0,0 l/m 0 min 2 min 180 W/m 22,5 km/h (4 Bft) 93,62 %
25.03.2023 12:58 9,4 C 10,0 C 4,4 C 90 % 1005,2 hPa 0,0 l/m 0 min 2 min 221 W/m 25,7 km/h (4 Bft) 93,62 %
25.03.2023 13:00 9,6 C 13,3 C 5,0 C 90 % 1005,2 hPa 0,0 l/m 2 min 2 min 348 W/m 25,7 km/h (4 Bft) 93,62 %
25.03.2023 13:02 9,7 C 13,9 C 5,0 C 91 % 1005,1 hPa 0,0 l/m 2 min 0 min 611 W/m 19,3 km/h (3 Bft) 97,87 %
25.03.2023 13:04 9,8 C 13,9 C 5,0 C 91 % 1005,0 hPa 0,0 l/m 2 min 0 min 409 W/m 19,3 km/h (3 Bft) 97,87 %
25.03.2023 13:06 10,0 C 15,6 C 5,0 C 91 % 1005,1 hPa 0,0 l/m 2 min 0 min 562 W/m 22,5 km/h (4 Bft) 93,62 %
25.03.2023 13:08 10,1 C 16,1 C 5,6 C 91 % 1005,0 hPa 0,0 l/m 2 min 0 min 707 W/m 32,2 km/h (5 Bft) 97,83 %
25.03.2023 13:10 10,3 C 16,7 C 5,6 C 91 % 1005,2 hPa 0,0 l/m 2 min 0 min 717 W/m 35,4 km/h (5 Bft) 100,00 %
25.03.2023 13:12 10,6 C 16,7 C 5,6 C 91 % 1005,1 hPa 0,0 l/m 2 min 0 min 754 W/m 35,4 km/h (5 Bft) 97,83 %
25.03.2023 13:14 10,7 C 15,6 C 5,6 C 91 % 1004,9 hPa 0,0 l/m 2 min 0 min 651 W/m 35,4 km/h (5 Bft) 97,87 %
25.03.2023 13:16 10,7 C 15,0 C 5,6 C 90 % 1005,1 hPa 0,0 l/m 2 min 0 min 480 W/m 41,8 km/h (6 Bft) 100,00 %
25.03.2023 13:18 10,7 C 15,6 C 5,6 C 89 % 1005,1 hPa 0,0 l/m 2 min 0 min 680 W/m 29,0 km/h (5 Bft) 100,00 %
25.03.2023 13:20 10,8 C 16,1 C 5,6 C 88 % 1005,2 hPa 0,0 l/m 2 min 0 min 780 W/m 35,4 km/h (5 Bft) 100,00 %
25.03.2023 13:22 11,0 C 17,2 C 5,6 C 87 % 1005,1 hPa 0,0 l/m 2 min 0 min 788 W/m 19,3 km/h (3 Bft) 100,00 %
25.03.2023 13:24 11,1 C 16,7 C 5,6 C 87 % 1005,0 hPa 0,0 l/m 2 min 0 min 752 W/m 38,6 km/h (5 Bft) 100,00 %
25.03.2023 13:26 11,1 C 13,9 C 5,6 C 86 % 1005,0 hPa 0,0 l/m 2 min 0 min 681 W/m 35,4 km/h (5 Bft) 100,00 %
25.03.2023 13:28 11,0 C 13,9 C 5,6 C 85 % 1004,9 hPa 0,0 l/m 0 min 0 min 150 W/m 29,0 km/h (5 Bft) 100,00 %
25.03.2023 13:30 11,1 C 16,1 C 5,6 C 86 % 1004,8 hPa 0,0 l/m 2 min 0 min 547 W/m 22,5 km/h (4 Bft) 100,00 %
25.03.2023 13:32 11,1 C 14,4 C 5,6 C 86 % 1004,8 hPa 0,0 l/m 2 min 0 min 737 W/m 32,2 km/h (5 Bft) 97,87 %
25.03.2023 13:34 11,1 C 16,1 C 5,6 C 86 % 1004,7 hPa 0,0 l/m 2 min 0 min 371 W/m 32,2 km/h (5 Bft) 100,00 %
25.03.2023 13:36 11,1 C 16,7 C 5,6 C 86 % 1004,8 hPa 0,0 l/m 2 min 0 min 700 W/m 32,2 km/h (5 Bft) 100,00 %
25.03.2023 13:38 11,2 C 16,7 C 5,6 C 85 % 1004,9 hPa 0,0 l/m 2 min 0 min 691 W/m 25,7 km/h (4 Bft) 100,00 %
25.03.2023 13:40 11,3 C 17,8 C 5,6 C 85 % 1004,8 hPa 0,0 l/m 2 min 0 min 692 W/m 19,3 km/h (3 Bft) 100,00 %
25.03.2023 13:42 11,5 C 17,8 C 6,1 C 85 % 1004,8 hPa 0,0 l/m 2 min 0 min 695 W/m 29,0 km/h (5 Bft) 100,00 %
25.03.2023 13:44 11,7 C 17,8 C 6,1 C 85 % 1004,9 hPa 0,0 l/m 2 min 0 min 709 W/m 32,2 km/h (5 Bft) 100,00 %
25.03.2023 13:46 11,8 C 17,2 C 6,1 C 85 % 1004,8 hPa 0,0 l/m 2 min 0 min 728 W/m 35,4 km/h (5 Bft) 100,00 %
25.03.2023 13:48 11,8 C 15,0 C 6,1 C 84 % 1004,9 hPa 0,0 l/m 2 min 0 min 761 W/m 22,5 km/h (4 Bft) 100,00 %
25.03.2023 13:50 11,8 C 12,8 C 5,6 C 83 % 1004,9 hPa 0,0 l/m 0 min 0 min 240 W/m 29,0 km/h (5 Bft) 100,00 %
25.03.2023 13:52 11,6 C 11,7 C 5,6 C 83 % 1005,0 hPa 0,0 l/m 0 min 2 min 162 W/m 25,7 km/h (4 Bft) 100,00 %
25.03.2023 13:54 11,4 C 11,1 C 5,6 C 84 % 1005,0 hPa 0,0 l/m 0 min 2 min 209 W/m 41,8 km/h (6 Bft) 100,00 %
25.03.2023 13:56 11,3 C 10,6 C 5,6 C 85 % 1005,1 hPa 0,0 l/m 0 min 2 min 165 W/m 29,0 km/h (5 Bft) 100,00 %
25.03.2023 13:58 11,1 C 10,0 C 5,6 C 85 % 1005,1 hPa 0,2 l/m 0 min 2 min 102 W/m 25,7 km/h (4 Bft) 100,00 %
25.03.2023 14:00 10,9 C 10,0 C 5,0 C 86 % 1005,2 hPa 0,0 l/m 0 min 2 min 57 W/m 22,5 km/h (4 Bft) 97,87 %
25.03.2023 14:02 10,8 C 9,4 C 5,0 C 87 % 1005,2 hPa 0,2 l/m 0 min 2 min 44 W/m 22,5 km/h (4 Bft) 97,87 %
25.03.2023 14:04 10,6 C 9,4 C 5,0 C 88 % 1005,2 hPa 0,2 l/m 0 min 2 min 70 W/m 32,2 km/h (5 Bft) 100,00 %
25.03.2023 14:06 10,3 C 9,4 C 5,0 C 88 % 1005,3 hPa 0,0 l/m 0 min 2 min 171 W/m 16,1 km/h (3 Bft) 100,00 %
25.03.2023 14:08 10,3 C 10,0 C 5,0 C 89 % 1005,2 hPa 0,0 l/m 0 min 2 min 234 W/m 19,3 km/h (3 Bft) 100,00 %
25.03.2023 14:10 10,1 C 10,0 C 5,0 C 89 % 1005,2 hPa 0,0 l/m 0 min 2 min 266 W/m 25,7 km/h (4 Bft) 100,00 %
25.03.2023 14:12 10,1 C 9,4 C 5,0 C 89 % 1005,4 hPa 0,2 l/m 0 min 2 min 171 W/m 19,3 km/h (3 Bft) 100,00 %
25.03.2023 14:14 9,9 C 9,4 C 4,4 C 89 % 1005,5 hPa 0,0 l/m 0 min 2 min 100 W/m 25,7 km/h (4 Bft) 100,00 %
25.03.2023 14:16 9,7 C 8,9 C 4,4 C 89 % 1005,7 hPa 0,0 l/m 0 min 2 min 70 W/m 29,0 km/h (5 Bft) 97,87 %
25.03.2023 14:18 9,6 C 8,3 C 4,4 C 90 % 1005,4 hPa 0,0 l/m 0 min 2 min 77 W/m 16,1 km/h (3 Bft) 100,00 %
25.03.2023 14:20 9,4 C 8,3 C 4,4 C 90 % 1005,3 hPa 0,2 l/m 0 min 2 min 105 W/m 22,5 km/h (4 Bft) 97,87 %
25.03.2023 14:22 9,3 C 8,3 C 4,4 C 90 % 1005,1 hPa 0,0 l/m 0 min 0 min 146 W/m 25,7 km/h (4 Bft) 97,83 %
25.03.2023 14:24 9,2 C 8,3 C 4,4 C 90 % 1005,3 hPa 0,0 l/m 0 min 2 min 181 W/m 16,1 km/h (3 Bft) 100,00 %
25.03.2023 14:26 9,2 C 8,9 C 4,4 C 90 % 1005,4 hPa 0,0 l/m 0 min 2 min 217 W/m 29,0 km/h (5 Bft) 97,87 %
25.03.2023 14:28 9,2 C 9,4 C 4,4 C 90 % 1005,3 hPa 0,0 l/m 2 min 0 min 326 W/m 19,3 km/h (3 Bft) 97,87 %
25.03.2023 14:30 9,3 C 10,6 C 4,4 C 91 % 1005,3 hPa 0,0 l/m 2 min 0 min 346 W/m 22,5 km/h (4 Bft) 95,74 %
25.03.2023 14:32 9,4 C 10,6 C 5,0 C 91 % 1005,3 hPa 0,0 l/m 2 min 0 min 362 W/m 29,0 km/h (5 Bft) 97,87 %
25.03.2023 14:34 9,6 C 10,6 C 5,0 C 91 % 1005,2 hPa 0,0 l/m 2 min 0 min 375 W/m 16,1 km/h (3 Bft) 97,87 %
25.03.2023 14:36 9,7 C 11,1 C 5,0 C 91 % 1005,2 hPa 0,0 l/m 2 min 0 min 399 W/m 16,1 km/h (3 Bft) 93,48 %
25.03.2023 14:38 9,8 C 12,8 C 5,0 C 91 % 1005,2 hPa 0,0 l/m 2 min 0 min 424 W/m 35,4 km/h (5 Bft) 91,49 %
25.03.2023 14:40 10,1 C 13,9 C 5,6 C 91 % 1005,1 hPa 0,0 l/m 2 min 0 min 578 W/m 19,3 km/h (3 Bft) 95,74 %
25.03.2023 14:42 10,3 C 14,4 C 5,6 C 91 % 1005,1 hPa 0,0 l/m 2 min 0 min 575 W/m 38,6 km/h (5 Bft) 95,74 %
25.03.2023 14:44 10,4 C 15,0 C 5,6 C 91 % 1005,0 hPa 0,0 l/m 2 min 0 min 742 W/m 32,2 km/h (5 Bft) 93,62 %
25.03.2023 14:46 10,6 C 14,4 C 5,6 C 91 % 1004,9 hPa 0,0 l/m 2 min 0 min 717 W/m 35,4 km/h (5 Bft) 95,74 %
25.03.2023 14:48 10,8 C 14,4 C 5,6 C 90 % 1004,9 hPa 0,0 l/m 2 min 0 min 651 W/m 25,7 km/h (4 Bft) 91,49 %
25.03.2023 14:50 10,9 C 13,9 C 5,6 C 89 % 1004,9 hPa 0,0 l/m 2 min 0 min 663 W/m 35,4 km/h (5 Bft) 95,65 %
25.03.2023 14:52 11,0 C 13,9 C 5,6 C 88 % 1004,9 hPa 0,0 l/m 2 min 0 min 698 W/m 22,5 km/h (4 Bft) 95,74 %
25.03.2023 14:54 11,2 C 13,9 C 5,6 C 88 % 1004,9 hPa 0,0 l/m 2 min 0 min 715 W/m 29,0 km/h (5 Bft) 91,49 %
25.03.2023 14:56 11,3 C 13,3 C 6,1 C 88 % 1004,9 hPa 0,0 l/m 2 min 0 min 679 W/m 32,2 km/h (5 Bft) 91,49 %
25.03.2023 14:58 11,3 C 12,8 C 5,6 C 86 % 1004,9 hPa 0,0 l/m 2 min 0 min 458 W/m 38,6 km/h (5 Bft) 95,74 %
25.03.2023 15:00 11,3 C 11,7 C 5,6 C 85 % 1005,1 hPa 0,0 l/m 2 min 0 min 340 W/m 38,6 km/h (5 Bft) 91,49 %
25.03.2023 15:02 11,2 C 11,1 C 5,6 C 84 % 1005,0 hPa 0,0 l/m 0 min 0 min 180 W/m 22,5 km/h (4 Bft) 93,62 %
25.03.2023 15:04 11,1 C 11,1 C 5,6 C 85 % 1005,0 hPa 0,0 l/m 0 min 0 min 144 W/m 22,5 km/h (4 Bft) 97,83 %
25.03.2023 15:06 11,1 C 11,1 C 5,6 C 85 % 1005,1 hPa 0,0 l/m 0 min 0 min 146 W/m 22,5 km/h (4 Bft) 93,22 %
25.03.2023 15:08 11,1 C 10,6 C 5,6 C 85 % 1005,0 hPa 0,0 l/m 0 min 2 min 157 W/m 25,7 km/h (4 Bft) 94,29 %
25.03.2023 15:10 10,9 C 10,6 C 5,0 C 84 % 1005,0 hPa 0,0 l/m 0 min 0 min 122 W/m 38,6 km/h (5 Bft) 93,62 %
25.03.2023 15:12 10,8 C 10,6 C 5,0 C 85 % 1005,1 hPa 0,0 l/m 0 min 0 min 95 W/m 22,5 km/h (4 Bft) 93,62 %
25.03.2023 15:14 10,8 C 10,6 C 5,0 C 85 % 1005,1 hPa 0,0 l/m 0 min 2 min 112 W/m 41,8 km/h (6 Bft) 97,87 %
25.03.2023 15:16 10,7 C 10,6 C 5,0 C 85 % 1005,1 hPa 0,0 l/m 0 min 2 min 154 W/m 25,7 km/h (4 Bft) 97,87 %
25.03.2023 15:18 10,7 C 11,1 C 5,0 C 85 % 1005,1 hPa 0,0 l/m 0 min 2 min 194 W/m 38,6 km/h (5 Bft) 91,30 %
25.03.2023 15:20 10,7 C 11,1 C 5,6 C 86 % 1005,1 hPa 0,0 l/m 2 min 2 min 313 W/m 22,5 km/h (4 Bft) 97,87 %
25.03.2023 15:22 10,7 C 11,1 C 5,6 C 86 % 1005,3 hPa 0,0 l/m 2 min 2 min 278 W/m 29,0 km/h (5 Bft) 93,62 %
25.03.2023 15:24 10,8 C 11,7 C 5,6 C 86 % 1005,3 hPa 0,0 l/m 2 min 2 min 297 W/m 25,7 km/h (4 Bft) 93,62 %
25.03.2023 15:26 10,8 C 11,1 C 5,0 C 86 % 1005,2 hPa 0,0 l/m 0 min 0 min 233 W/m 41,8 km/h (6 Bft) 95,74 %
25.03.2023 15:28 10,8 C 11,1 C 5,6 C 86 % 1005,2 hPa 0,0 l/m 0 min 0 min 211 W/m 22,5 km/h (4 Bft) 97,87 %
25.03.2023 15:30 10,9 C 11,1 C 5,6 C 86 % 1005,3 hPa 0,0 l/m 0 min 0 min 210 W/m 19,3 km/h (3 Bft) 93,48 %
25.03.2023 15:32 10,9 C 11,1 C 5,6 C 86 % 1005,1 hPa 0,0 l/m 0 min 0 min 235 W/m 19,3 km/h (3 Bft) 97,87 %
25.03.2023 15:34 10,9 C 11,7 C 5,6 C 86 % 1005,1 hPa 0,0 l/m 0 min 0 min 190 W/m 16,1 km/h (3 Bft) 95,74 %
25.03.2023 15:36 11,0 C 11,1 C 5,6 C 86 % 1005,1 hPa 0,0 l/m 0 min 0 min 145 W/m 22,5 km/h (4 Bft) 95,74 %
25.03.2023 15:38 11,0 C 10,6 C 5,0 C 85 % 1005,1 hPa 0,0 l/m 0 min 0 min 78 W/m 32,2 km/h (5 Bft) 95,74 %
25.03.2023 15:40 10,9 C 10,6 C 5,0 C 85 % 1005,1 hPa 0,0 l/m 0 min 2 min 80 W/m 22,5 km/h (4 Bft) 97,87 %
25.03.2023 15:42 10,9 C 10,0 C 5,0 C 85 % 1005,1 hPa 0,0 l/m 0 min 2 min 75 W/m 25,7 km/h (4 Bft) 95,74 %
25.03.2023 15:44 10,8 C 10,0 C 5,0 C 85 % 1005,2 hPa 0,0 l/m 0 min 2 min 57 W/m 25,7 km/h (4 Bft) 93,62 %
25.03.2023 15:46 10,7 C 10,0 C 5,0 C 85 % 1005,2 hPa 0,0 l/m 0 min 2 min 43 W/m 35,4 km/h (5 Bft) 95,65 %
25.03.2023 15:48 10,6 C 9,4 C 5,0 C 85 % 1005,2 hPa 0,0 l/m 0 min 2 min 31 W/m 32,2 km/h (5 Bft) 95,74 %
25.03.2023 15:50 10,5 C 9,4 C 4,4 C 86 % 1005,2 hPa 0,0 l/m 0 min 2 min 21 W/m 29,0 km/h (5 Bft) 97,87 %
25.03.2023 15:52 10,4 C 9,4 C 4,4 C 87 % 1005,3 hPa 0,0 l/m 0 min 2 min 16 W/m 25,7 km/h (4 Bft) 95,74 %
25.03.2023 15:54 10,3 C 9,4 C 4,4 C 87 % 1005,4 hPa 0,0 l/m 0 min 2 min 13 W/m 16,1 km/h (3 Bft) 87,23 %
25.03.2023 15:56 10,2 C 9,4 C 4,4 C 88 % 1005,5 hPa 0,2 l/m 0 min 2 min 12 W/m 22,5 km/h (4 Bft) 93,62 %
25.03.2023 15:58 10,2 C 8,9 C 4,4 C 88 % 1005,5 hPa 0,0 l/m 0 min 2 min 13 W/m 12,9 km/h (3 Bft) 97,83 %
25.03.2023 16:00 10,1 C 8,9 C 4,4 C 89 % 1005,5 hPa 0,2 l/m 0 min 2 min 11 W/m 19,3 km/h (3 Bft) 97,87 %
25.03.2023 16:02 10,0 C 8,9 C 4,4 C 89 % 1005,6 hPa 0,2 l/m 0 min 2 min 11 W/m 16,1 km/h (3 Bft) 95,74 %
25.03.2023 16:04 9,9 C 8,9 C 4,4 C 90 % 1005,8 hPa 0,2 l/m 0 min 2 min 11 W/m 16,1 km/h (3 Bft) 97,87 %
25.03.2023 16:06 9,6 C 7,8 C 3,9 C 89 % 1005,7 hPa 0,6 l/m 0 min 2 min 19 W/m 25,7 km/h (4 Bft) 96,61 %
25.03.2023 16:08 9,3 C 7,2 C 3,9 C 89 % 1005,6 hPa 0,4 l/m 0 min 2 min 41 W/m 19,3 km/h (3 Bft) 97,14 %
25.03.2023 16:10 9,1 C 7,8 C 3,9 C 90 % 1005,5 hPa 0,0 l/m 0 min 2 min 94 W/m 12,9 km/h (3 Bft) 100,00 %
25.03.2023 16:12 9,1 C 9,4 C 3,9 C 90 % 1005,5 hPa 0,0 l/m 2 min 0 min 349 W/m 35,4 km/h (5 Bft) 100,00 %
25.03.2023 16:14 9,1 C 10,6 C 4,4 C 90 % 1005,5 hPa 0,0 l/m 2 min 0 min 503 W/m 29,0 km/h (5 Bft) 100,00 %
25.03.2023 16:16 9,2 C 10,0 C 4,4 C 90 % 1005,6 hPa 0,0 l/m 2 min 0 min 352 W/m 19,3 km/h (3 Bft) 97,87 %
25.03.2023 16:18 9,2 C 10,0 C 4,4 C 90 % 1005,5 hPa 0,0 l/m 0 min 0 min 135 W/m 19,3 km/h (3 Bft) 100,00 %
25.03.2023 16:20 9,3 C 9,4 C 4,4 C 90 % 1005,5 hPa 0,0 l/m 0 min 0 min 146 W/m 16,1 km/h (3 Bft) 97,87 %
25.03.2023 16:22 9,3 C 9,4 C 4,4 C 89 % 1005,5 hPa 0,0 l/m 0 min 0 min 148 W/m 12,9 km/h (3 Bft) 100,00 %
25.03.2023 16:24 9,3 C 9,4 C 4,4 C 89 % 1005,5 hPa 0,0 l/m 0 min 0 min 130 W/m 12,9 km/h (3 Bft) 97,87 %
25.03.2023 16:26 9,3 C 8,9 C 4,4 C 89 % 1005,5 hPa 0,0 l/m 0 min 0 min 106 W/m 16,1 km/h (3 Bft) 100,00 %
25.03.2023 16:28 9,3 C 8,9 C 4,4 C 89 % 1005,5 hPa 0,0 l/m 0 min 0 min 80 W/m 16,1 km/h (3 Bft) 97,87 %
25.03.2023 16:30 9,3 C 8,9 C 4,4 C 89 % 1005,4 hPa 0,0 l/m 0 min 0 min 57 W/m 12,9 km/h (3 Bft) 97,87 %
25.03.2023 16:32 9,3 C 8,9 C 4,4 C 89 % 1005,5 hPa 0,0 l/m 0 min 0 min 54 W/m 9,7 km/h (2 Bft) 95,74 %
25.03.2023 16:34 9,3 C 8,9 C 4,4 C 89 % 1005,4 hPa 0,0 l/m 0 min 0 min 80 W/m 12,9 km/h (3 Bft) 97,87 %
25.03.2023 16:36 9,3 C 8,9 C 4,4 C 89 % 1005,4 hPa 0,0 l/m 0 min 0 min 117 W/m 9,7 km/h (2 Bft) 97,87 %
25.03.2023 16:38 9,3 C 8,9 C 4,4 C 89 % 1005,4 hPa 0,0 l/m 0 min 0 min 123 W/m 12,9 km/h (3 Bft) 93,62 %
25.03.2023 16:40 9,3 C 8,9 C 4,4 C 89 % 1005,4 hPa 0,0 l/m 0 min 0 min 65 W/m 9,7 km/h (2 Bft) 97,83 %
25.03.2023 16:42 9,3 C 8,9 C 4,4 C 90 % 1005,4 hPa 0,0 l/m 0 min 0 min 52 W/m 16,1 km/h (3 Bft) 97,87 %
25.03.2023 16:44 9,4 C 8,9 C 4,4 C 90 % 1005,3 hPa 0,0 l/m 0 min 2 min 56 W/m 6,4 km/h (2 Bft) 97,87 %
25.03.2023 16:46 9,4 C 8,9 C 4,4 C 90 % 1005,4 hPa 0,0 l/m 0 min 2 min 53 W/m 9,7 km/h (2 Bft) 95,74 %
25.03.2023 16:48 9,5 C 8,9 C 4,4 C 91 % 1005,3 hPa 0,0 l/m 0 min 2 min 48 W/m 16,1 km/h (3 Bft) 97,87 %
25.03.2023 16:50 9,6 C 8,9 C 4,4 C 91 % 1005,2 hPa 0,0 l/m 0 min 2 min 43 W/m 16,1 km/h (3 Bft) 97,87 %
25.03.2023 16:52 9,6 C 9,4 C 4,4 C 91 % 1005,3 hPa 0,0 l/m 0 min 0 min 67 W/m 19,3 km/h (3 Bft) 97,87 %
25.03.2023 16:54 9,6 C 9,4 C 5,0 C 91 % 1005,2 hPa 0,0 l/m 0 min 0 min 146 W/m 16,1 km/h (3 Bft) 97,83 %
25.03.2023 16:56 9,7 C 10,0 C 5,0 C 91 % 1005,3 hPa 0,0 l/m 0 min 0 min 146 W/m 12,9 km/h (3 Bft) 97,87 %
25.03.2023 16:58 9,7 C 10,6 C 5,0 C 91 % 1005,2 hPa 0,0 l/m 2 min 0 min 199 W/m 12,9 km/h (3 Bft) 97,87 %
25.03.2023 17:00 9,8 C 11,1 C 5,0 C 91 % 1005,2 hPa 0,0 l/m 2 min 0 min 290 W/m 25,7 km/h (4 Bft) 100,00 %
25.03.2023 17:02 9,9 C 10,6 C 5,0 C 91 % 1005,2 hPa 0,0 l/m 0 min 0 min 118 W/m 25,7 km/h (4 Bft) 100,00 %
25.03.2023 17:04 9,9 C 10,0 C 5,0 C 90 % 1005,2 hPa 0,0 l/m 0 min 0 min 46 W/m 16,1 km/h (3 Bft) 100,00 %
25.03.2023 17:06 9,9 C 9,4 C 4,4 C 90 % 1005,3 hPa 0,0 l/m 0 min 0 min 53 W/m 19,3 km/h (3 Bft) 96,55 %
25.03.2023 17:08 9,8 C 10,0 C 4,4 C 90 % 1005,3 hPa 0,0 l/m 2 min 0 min 162 W/m 19,3 km/h (3 Bft) 100,00 %
25.03.2023 17:10 9,9 C 10,0 C 5,0 C 90 % 1005,3 hPa 0,0 l/m 2 min 2 min 212 W/m 22,5 km/h (4 Bft) 100,00 %
25.03.2023 17:12 9,9 C 10,0 C 5,0 C 90 % 1005,3 hPa 0,0 l/m 2 min 2 min 177 W/m 16,1 km/h (3 Bft) 100,00 %
25.03.2023 17:14 9,9 C 10,0 C 5,0 C 90 % 1005,3 hPa 0,0 l/m 2 min 2 min 219 W/m 19,3 km/h (3 Bft) 97,87 %
25.03.2023 17:16 10,0 C 10,0 C 5,0 C 90 % 1005,3 hPa 0,0 l/m 2 min 2 min 212 W/m 16,1 km/h (3 Bft) 100,00 %
25.03.2023 17:18 10,0 C 10,0 C 5,0 C 90 % 1005,2 hPa 0,0 l/m 2 min 2 min 162 W/m 12,9 km/h (3 Bft) 100,00 %
25.03.2023 17:20 10,1 C 10,0 C 5,0 C 90 % 1005,2 hPa 0,0 l/m 2 min 0 min 132 W/m 12,9 km/h (3 Bft) 100,00 %
25.03.2023 17:22 10,0 C 10,0 C 5,0 C 90 % 1005,2 hPa 0,0 l/m 0 min 0 min 35 W/m 19,3 km/h (3 Bft) 100,00 %
25.03.2023 17:24 9,9 C 9,4 C 4,4 C 90 % 1005,2 hPa 0,0 l/m 0 min 0 min 24 W/m 16,1 km/h (3 Bft) 100,00 %
25.03.2023 17:26 9,9 C 9,4 C 4,4 C 89 % 1005,2 hPa 0,0 l/m 0 min 0 min 21 W/m 29,0 km/h (5 Bft) 100,00 %
25.03.2023 17:28 9,9 C 9,4 C 4,4 C 89 % 1005,3 hPa 0,0 l/m 0 min 0 min 19 W/m 16,1 km/h (3 Bft) 97,87 %
25.03.2023 17:30 9,9 C 9,4 C 4,4 C 89 % 1005,2 hPa 0,0 l/m 0 min 0 min 19 W/m 19,3 km/h (3 Bft) 100,00 %
25.03.2023 17:32 9,9 C 9,4 C 4,4 C 89 % 1005,2 hPa 0,0 l/m 0 min 0 min 19 W/m 19,3 km/h (3 Bft) 97,87 %
25.03.2023 17:34 9,9 C 9,4 C 4,4 C 89 % 1005,3 hPa 0,0 l/m 0 min 0 min 18 W/m 16,1 km/h (3 Bft) 100,00 %
25.03.2023 17:36 9,9 C 9,4 C 4,4 C 89 % 1005,4 hPa 0,0 l/m 0 min 0 min 17 W/m 12,9 km/h (3 Bft) 97,87 %
25.03.2023 17:38 9,9 C 9,4 C 4,4 C 88 % 1005,5 hPa 0,0 l/m 0 min 0 min 18 W/m 25,7 km/h (4 Bft) 91,30 %
25.03.2023 17:40 9,9 C 9,4 C 4,4 C 88 % 1005,5 hPa 0,0 l/m 0 min 0 min 23 W/m 16,1 km/h (3 Bft) 74,47 %
25.03.2023 17:42 10,0 C 9,4 C 4,4 C 88 % 1005,5 hPa 0,0 l/m 0 min 0 min 40 W/m 32,2 km/h (5 Bft) 57,45 %
25.03.2023 17:44 10,0 C 9,4 C 4,4 C 88 % 1005,6 hPa 0,0 l/m 0 min 0 min 76 W/m 45,1 km/h (6 Bft) 61,70 %
25.03.2023 17:46 10,0 C 10,0 C 4,4 C 87 % 1005,6 hPa 0,0 l/m 0 min 0 min 72 W/m 32,2 km/h (5 Bft) 57,45 %
25.03.2023 17:48 10,0 C 10,0 C 4,4 C 86 % 1005,7 hPa 0,0 l/m 0 min 0 min 72 W/m 29,0 km/h (5 Bft) 40,43 %
25.03.2023 17:50 9,9 C 9,4 C 3,9 C 86 % 1005,7 hPa 0,0 l/m 0 min 0 min 67 W/m 25,7 km/h (4 Bft) 80,43 %
25.03.2023 17:52 9,9 C 9,4 C 3,9 C 85 % 1005,6 hPa 0,0 l/m 0 min 0 min 47 W/m 35,4 km/h (5 Bft) 76,60 %
25.03.2023 17:54 9,8 C 9,4 C 3,9 C 84 % 1005,7 hPa 0,0 l/m 0 min 0 min 39 W/m 22,5 km/h (4 Bft) 68,09 %
25.03.2023 17:56 9,7 C 8,9 C 3,9 C 84 % 1005,7 hPa 0,0 l/m 0 min 0 min 38 W/m 22,5 km/h (4 Bft) 93,62 %
25.03.2023 17:58 9,7 C 8,9 C 3,9 C 84 % 1005,6 hPa 0,0 l/m 0 min 0 min 58 W/m 16,1 km/h (3 Bft) 95,74 %
25.03.2023 18:00 9,6 C 8,9 C 3,9 C 85 % 1005,6 hPa 0,0 l/m 2 min 2 min 70 W/m 19,3 km/h (3 Bft) 93,62 %
25.03.2023 18:02 9,6 C 8,9 C 3,9 C 85 % 1005,6 hPa 0,0 l/m 0 min 2 min 54 W/m 16,1 km/h (3 Bft) 93,62 %
25.03.2023 18:04 9,6 C 8,9 C 3,9 C 86 % 1005,5 hPa 0,0 l/m 0 min 0 min 46 W/m 16,1 km/h (3 Bft) 50,00 %
25.03.2023 18:07 9,6 C 8,9 C 3,9 C 86 % 1005,6 hPa 0,0 l/m 0 min 0 min 38 W/m 25,7 km/h (4 Bft) 84,93 %
25.03.2023 18:08 9,6 C 8,9 C 3,9 C 86 % 1005,6 hPa 0,0 l/m 0 min 0 min 25 W/m 25,7 km/h (4 Bft) 91,30 %
25.03.2023 18:12 9,7 C 8,9 C 3,9 C 86 % 1005,6 hPa 0,0 l/m 0 min 0 min 25 W/m 22,5 km/h (4 Bft) 93,88 %
25.03.2023 18:14 9,7 C 9,4 C 3,9 C 86 % 1005,7 hPa 0,0 l/m 0 min 0 min 20 W/m 16,1 km/h (3 Bft) 95,65 %
25.03.2023 18:16 9,8 C 9,4 C 3,9 C 86 % 1005,7 hPa 0,0 l/m 0 min 0 min 18 W/m 25,7 km/h (4 Bft) 95,74 %
25.03.2023 18:18 9,8 C 8,9 C 3,9 C 85 % 1005,7 hPa 0,0 l/m 0 min 0 min 17 W/m 22,5 km/h (4 Bft) 95,74 %
25.03.2023 18:20 9,8 C 8,9 C 3,9 C 85 % 1005,8 hPa 0,0 l/m 0 min 0 min 16 W/m 22,5 km/h (4 Bft) 91,49 %
25.03.2023 18:22 9,8 C 8,9 C 3,9 C 85 % 1005,7 hPa 0,0 l/m 0 min 0 min 16 W/m 22,5 km/h (4 Bft) 91,49 %
25.03.2023 18:24 9,7 C 8,9 C 3,9 C 84 % 1005,8 hPa 0,0 l/m 0 min 0 min 16 W/m 25,7 km/h (4 Bft) 91,49 %
25.03.2023 18:26 9,7 C 8,9 C 3,3 C 83 % 1005,8 hPa 0,0 l/m 0 min 0 min 16 W/m 32,2 km/h (5 Bft) 87,23 %
25.03.2023 18:28 9,7 C 8,9 C 3,3 C 83 % 1005,8 hPa 0,0 l/m 0 min 0 min 16 W/m 19,3 km/h (3 Bft) 91,30 %
25.03.2023 18:30 9,8 C 9,4 C 3,9 C 83 % 1005,9 hPa 0,0 l/m 0 min 0 min 16 W/m 22,5 km/h (4 Bft) 93,62 %
25.03.2023 18:32 9,8 C 9,4 C 3,9 C 83 % 1006,0 hPa 0,0 l/m 0 min 0 min 16 W/m 19,3 km/h (3 Bft) 93,62 %
25.03.2023 18:34 9,8 C 9,4 C 3,9 C 82 % 1006,1 hPa 0,0 l/m 0 min 0 min 16 W/m 32,2 km/h (5 Bft) 95,74 %
25.03.2023 18:36 9,8 C 9,4 C 3,9 C 82 % 1006,1 hPa 0,0 l/m 0 min 0 min 14 W/m 16,1 km/h (3 Bft) 95,74 %
25.03.2023 18:38 9,8 C 8,9 C 3,9 C 82 % 1006,2 hPa 0,0 l/m 0 min 0 min 14 W/m 25,7 km/h (4 Bft) 95,74 %
25.03.2023 18:40 9,8 C 8,9 C 3,9 C 82 % 1006,2 hPa 0,0 l/m 0 min 0 min 12 W/m 16,1 km/h (3 Bft) 93,62 %
25.03.2023 18:42 9,7 C 8,9 C 3,9 C 83 % 1006,2 hPa 0,0 l/m 0 min 0 min 11 W/m 19,3 km/h (3 Bft) 93,48 %
25.03.2023 18:44 9,7 C 8,9 C 3,9 C 83 % 1006,3 hPa 0,0 l/m 0 min 0 min 9 W/m 29,0 km/h (5 Bft) 97,87 %
25.03.2023 18:46 9,7 C 8,9 C 3,9 C 83 % 1006,3 hPa 0,0 l/m 0 min 0 min 8 W/m 16,1 km/h (3 Bft) 95,74 %
25.03.2023 18:48 9,6 C 8,9 C 3,9 C 84 % 1006,4 hPa 0,0 l/m 0 min 0 min 7 W/m 32,2 km/h (5 Bft) 95,74 %
25.03.2023 18:50 9,6 C 8,9 C 3,9 C 84 % 1006,4 hPa 0,0 l/m 0 min 0 min 7 W/m 22,5 km/h (4 Bft) 97,87 %
25.03.2023 18:52 9,6 C 8,9 C 3,9 C 84 % 1006,5 hPa 0,0 l/m 0 min 0 min 5 W/m 25,7 km/h (4 Bft) 95,74 %
25.03.2023 18:54 9,6 C 8,9 C 3,9 C 85 % 1006,4 hPa 0,0 l/m 0 min 0 min 1 W/m 12,9 km/h (3 Bft) 100,00 %
25.03.2023 18:56 9,5 C 8,9 C 3,9 C 85 % 1006,4 hPa 0,0 l/m 0 min 0 min 0 W/m 16,1 km/h (3 Bft) 95,65 %
25.03.2023 18:58 9,5 C 8,9 C 3,9 C 85 % 1006,4 hPa 0,0 l/m 0 min 0 min 0 W/m 16,1 km/h (3 Bft) 95,74 %
25.03.2023 19:00 9,5 C 8,9 C 3,9 C 85 % 1006,4 hPa 0,0 l/m 0 min 0 min 0 W/m 25,7 km/h (4 Bft) 95,74 %
25.03.2023 19:02 9,6 C 8,9 C 4,4 C 85 % 1006,4 hPa 0,0 l/m 0 min 0 min 0 W/m 16,1 km/h (3 Bft) 100,00 %
25.03.2023 19:04 9,5 C 8,9 C 4,4 C 86 % 1006,5 hPa 0,0 l/m 0 min 0 min 0 W/m 19,3 km/h (3 Bft) 100,00 %
25.03.2023 19:06 9,6 C 8,9 C 4,4 C 86 % 1006,5 hPa 0,0 l/m 0 min 0 min 0 W/m 16,1 km/h (3 Bft) 100,00 %
25.03.2023 19:08 9,6 C 8,9 C 4,4 C 86 % 1006,5 hPa 0,0 l/m 0 min 0 min 0 W/m 22,5 km/h (4 Bft) 100,00 %
25.03.2023 19:10 9,6 C 8,9 C 5,0 C 85 % 1006,6 hPa 0,0 l/m 0 min 0 min 0 W/m 19,3 km/h (3 Bft) 95,65 %
25.03.2023 19:12 9,6 C 8,9 C 5,0 C 85 % 1006,6 hPa 0,0 l/m 0 min 0 min 0 W/m 32,2 km/h (5 Bft) 100,00 %
25.03.2023 19:14 9,6 C 8,9 C 5,0 C 85 % 1006,7 hPa 0,0 l/m 0 min 0 min 0 W/m 16,1 km/h (3 Bft) 100,00 %
25.03.2023 19:16 9,6 C 8,9 C 5,0 C 86 % 1006,7 hPa 0,0 l/m 0 min 0 min 0 W/m 12,9 km/h (3 Bft) 100,00 %
25.03.2023 19:18 9,6 C 8,9 C 5,0 C 86 % 1006,8 hPa 0,0 l/m 0 min 0 min 0 W/m 12,9 km/h (3 Bft) 100,00 %
25.03.2023 19:20 9,6 C 8,3 C 5,0 C 86 % 1006,8 hPa 0,0 l/m 0 min 0 min 0 W/m 19,3 km/h (3 Bft) 100,00 %
25.03.2023 19:22 9,5 C 8,3 C 5,0 C 86 % 1006,8 hPa 0,0 l/m 0 min 0 min 0 W/m 19,3 km/h (3 Bft) 95,65 %
25.03.2023 19:24 9,4 C 8,3 C 5,0 C 86 % 1006,8 hPa 0,0 l/m 0 min 0 min 0 W/m 19,3 km/h (3 Bft) 100,00 %
25.03.2023 19:26 9,4 C 8,9 C 5,0 C 86 % 1006,8 hPa 0,0 l/m 0 min 0 min 0 W/m 19,3 km/h (3 Bft) 100,00 %
25.03.2023 19:28 9,4 C 8,3 C 5,0 C 86 % 1006,8 hPa 0,0 l/m 0 min 0 min 0 W/m 19,3 km/h (3 Bft) 100,00 %
25.03.2023 19:30 9,4 C 8,3 C 5,0 C 86 % 1006,9 hPa 0,0 l/m 0 min 0 min 0 W/m 12,9 km/h (3 Bft) 100,00 %
25.03.2023 19:32 9,4 C 8,3 C 5,0 C 86 % 1006,9 hPa 0,0 l/m 0 min 0 min 0 W/m 12,9 km/h (3 Bft) 97,87 %
25.03.2023 19:34 9,3 C 8,3 C 5,0 C 86 % 1006,9 hPa 0,0 l/m 0 min 0 min 0 W/m 12,9 km/h (3 Bft) 100,00 %
25.03.2023 19:36 9,3 C 8,3 C 5,0 C 86 % 1006,9 hPa 0,0 l/m 0 min 0 min 0 W/m 12,9 km/h (3 Bft) 100,00 %
25.03.2023 19:38 9,3 C 8,3 C 5,0 C 86 % 1006,8 hPa 0,0 l/m 0 min 0 min 0 W/m 22,5 km/h (4 Bft) 100,00 %
25.03.2023 19:40 9,3 C 8,3 C 5,0 C 86 % 1006,9 hPa 0,0 l/m 0 min 0 min 0 W/m 16,1 km/h (3 Bft) 98,15 %
25.03.2023 19:42 9,3 C 8,3 C 5,0 C 86 % 1006,9 hPa 0,0 l/m 0 min 0 min 0 W/m 22,5 km/h (4 Bft) 100,00 %
25.03.2023 19:44 9,3 C 8,3 C 5,0 C 86 % 1007,0 hPa 0,0 l/m 0 min 0 min 0 W/m 19,3 km/h (3 Bft) 95,74 %
25.03.2023 19:46 9,3 C 8,3 C 5,0 C 86 % 1006,9 hPa 0,0 l/m 0 min 0 min 0 W/m 16,1 km/h (3 Bft) 100,00 %
25.03.2023 19:48 9,3 C 8,3 C 5,0 C 86 % 1007,0 hPa 0,0 l/m 0 min 0 min 0 W/m 19,3 km/h (3 Bft) 100,00 %
25.03.2023 19:50 9,3 C 8,3 C 5,0 C 86 % 1006,9 hPa 0,0 l/m 0 min 0 min 0 W/m 22,5 km/h (4 Bft) 100,00 %
25.03.2023 19:52 9,3 C 8,3 C 5,0 C 86 % 1006,9 hPa 0,0 l/m 0 min 0 min 0 W/m 22,5 km/h (4 Bft) 100,00 %
25.03.2023 19:54 9,3 C 8,3 C 5,0 C 86 % 1006,9 hPa 0,0 l/m 0 min 0 min 0 W/m 12,9 km/h (3 Bft) 97,87 %
25.03.2023 19:56 9,3 C 8,3 C 5,0 C 86 % 1007,0 hPa 0,0 l/m 0 min 0 min 0 W/m 12,9 km/h (3 Bft) 93,62 %
25.03.2023 19:58 9,3 C 8,3 C 5,0 C 86 % 1006,9 hPa 0,0 l/m 0 min 0 min 0 W/m 16,1 km/h (3 Bft) 97,83 %
25.03.2023 20:00 9,2 C 8,3 C 5,0 C 86 % 1006,9 hPa 0,0 l/m 0 min 0 min 0 W/m 12,9 km/h (3 Bft) 100,00 %
25.03.2023 20:02 9,2 C 8,3 C 5,0 C 86 % 1006,9 hPa 0,0 l/m 0 min 0 min 0 W/m 12,9 km/h (3 Bft) 97,87 %
25.03.2023 20:04 9,2 C 8,3 C 5,0 C 86 % 1007,0 hPa 0,0 l/m 0 min 0 min 0 W/m 16,1 km/h (3 Bft) 95,74 %
25.03.2023 20:06 9,2 C 8,3 C 5,0 C 86 % 1006,9 hPa 0,0 l/m 0 min 0 min 0 W/m 29,0 km/h (5 Bft) 98,28 %
25.03.2023 20:08 9,2 C 8,3 C 5,0 C 86 % 1006,9 hPa 0,0 l/m 0 min 0 min 0 W/m 22,5 km/h (4 Bft) 94,29 %
25.03.2023 20:10 9,2 C 8,3 C 5,0 C 86 % 1006,9 hPa 0,0 l/m 0 min 0 min 0 W/m 19,3 km/h (3 Bft) 97,87 %
25.03.2023 20:12 9,2 C 8,3 C 5,0 C 86 % 1006,8 hPa 0,0 l/m 0 min 0 min 0 W/m 16,1 km/h (3 Bft) 95,74 %
25.03.2023 20:14 9,2 C 8,3 C 5,0 C 86 % 1006,8 hPa 0,0 l/m 0 min 0 min 0 W/m 12,9 km/h (3 Bft) 95,83 %
25.03.2023 20:16 9,2 C 8,3 C 5,0 C 86 % 1006,8 hPa 0,0 l/m 0 min 0 min 0 W/m 12,9 km/h (3 Bft) 96,36 %
25.03.2023 20:18 9,1 C 8,3 C 5,0 C 87 % 1006,8 hPa 0,0 l/m 0 min 0 min 0 W/m 16,1 km/h (3 Bft) 97,87 %
25.03.2023 20:20 9,1 C 8,3 C 5,0 C 87 % 1006,9 hPa 0,0 l/m 0 min 0 min 0 W/m 12,9 km/h (3 Bft) 93,62 %
25.03.2023 20:22 9,1 C 8,3 C 5,0 C 87 % 1006,9 hPa 0,0 l/m 0 min 0 min 0 W/m 22,5 km/h (4 Bft) 95,74 %
25.03.2023 20:24 9,2 C 8,3 C 5,0 C 87 % 1007,0 hPa 0,0 l/m 0 min 0 min 0 W/m 16,1 km/h (3 Bft) 95,92 %
25.03.2023 20:26 9,2 C 8,3 C 5,0 C 87 % 1007,0 hPa 0,0 l/m 0 min 0 min 0 W/m 16,1 km/h (3 Bft) 94,59 %
25.03.2023 20:28 9,2 C 8,3 C 5,0 C 87 % 1007,0 hPa 0,0 l/m 0 min 0 min 0 W/m 16,1 km/h (3 Bft) 93,62 %
25.03.2023 20:30 9,2 C 8,3 C 5,0 C 87 % 1007,0 hPa 0,0 l/m 0 min 0 min 0 W/m 22,5 km/h (4 Bft) 95,65 %
25.03.2023 20:32 9,2 C 8,3 C 5,0 C 87 % 1007,0 hPa 0,0 l/m 0 min 0 min 0 W/m 16,1 km/h (3 Bft) 95,74 %
25.03.2023 20:34 9,2 C 8,3 C 5,0 C 87 % 1007,0 hPa 0,0 l/m 0 min 0 min 0 W/m 19,3 km/h (3 Bft) 96,00 %
25.03.2023 20:36 9,3 C 8,3 C 5,0 C 87 % 1007,0 hPa 0,0 l/m 0 min 0 min 0 W/m 19,3 km/h (3 Bft) 93,62 %
25.03.2023 20:38 9,3 C 8,3 C 5,0 C 87 % 1007,0 hPa 0,0 l/m 0 min 0 min 0 W/m 19,3 km/h (3 Bft) 91,49 %
25.03.2023 20:40 9,3 C 8,3 C 5,0 C 87 % 1007,0 hPa 0,0 l/m 0 min 0 min 0 W/m 16,1 km/h (3 Bft) 95,74 %
25.03.2023 20:42 9,3 C 8,3 C 5,0 C 87 % 1007,0 hPa 0,0 l/m 0 min 0 min 0 W/m 22,5 km/h (4 Bft) 95,74 %
25.03.2023 20:44 9,3 C 8,3 C 5,0 C 87 % 1007,0 hPa 0,0 l/m 0 min 0 min 0 W/m 22,5 km/h (4 Bft) 97,83 %
25.03.2023 20:46 9,3 C 8,3 C 5,0 C 87 % 1007,1 hPa 0,0 l/m 0 min 0 min 0 W/m 19,3 km/h (3 Bft) 97,87 %
25.03.2023 20:48 9,3 C 8,3 C 5,0 C 87 % 1007,0 hPa 0,0 l/m 0 min 0 min 0 W/m 22,5 km/h (4 Bft) 97,87 %
25.03.2023 20:50 9,3 C 8,3 C 5,0 C 87 % 1007,0 hPa 0,0 l/m 0 min 0 min 0 W/m 19,3 km/h (3 Bft) 97,87 %
25.03.2023 20:52 9,3 C 8,3 C 5,0 C 87 % 1006,9 hPa 0,0 l/m 0 min 0 min 0 W/m 16,1 km/h (3 Bft) 97,87 %
25.03.2023 20:54 9,3 C 8,3 C 5,0 C 87 % 1007,0 hPa 0,0 l/m 0 min 0 min 0 W/m 19,3 km/h (3 Bft) 93,62 %
25.03.2023 20:56 9,3 C 8,3 C 5,0 C 87 % 1007,1 hPa 0,0 l/m 0 min 0 min 0 W/m 12,9 km/h (3 Bft) 95,65 %
25.03.2023 20:58 9,3 C 8,3 C 5,0 C 87 % 1007,1 hPa 0,0 l/m 0 min 0 min 0 W/m 16,1 km/h (3 Bft) 95,74 %
25.03.2023 21:00 9,3 C 8,3 C 5,0 C 87 % 1007,0 hPa 0,0 l/m 0 min 0 min 0 W/m 19,3 km/h (3 Bft) 95,74 %
25.03.2023 21:02 9,3 C 8,3 C 5,0 C 87 % 1007,0 hPa 0,0 l/m 0 min 0 min 0 W/m 22,5 km/h (4 Bft) 97,87 %
25.03.2023 21:04 9,3 C 8,3 C 5,0 C 87 % 1007,1 hPa 0,0 l/m 0 min 0 min 0 W/m 16,1 km/h (3 Bft) 95,74 %
25.03.2023 21:06 9,3 C 8,3 C 5,0 C 87 % 1007,1 hPa 0,0 l/m 0 min 0 min 0 W/m 22,5 km/h (4 Bft) 96,23 %
25.03.2023 21:08 9,4 C 8,3 C 5,0 C 87 % 1007,1 hPa 0,0 l/m 0 min 0 min 0 W/m 19,3 km/h (3 Bft) 97,56 %
25.03.2023 21:10 9,4 C 8,3 C 5,0 C 87 % 1007,2 hPa 0,0 l/m 0 min 0 min 0 W/m 16,1 km/h (3 Bft) 97,87 %
25.03.2023 21:12 9,4 C 8,9 C 5,0 C 87 % 1007,1 hPa 0,0 l/m 0 min 0 min 0 W/m 16,1 km/h (3 Bft) 95,65 %
25.03.2023 21:14 9,4 C 8,9 C 5,0 C 87 % 1007,1 hPa 0,0 l/m 0 min 0 min 0 W/m 16,1 km/h (3 Bft) 97,87 %
25.03.2023 21:16 9,4 C 8,9 C 5,6 C 87 % 1007,3 hPa 0,0 l/m 0 min 0 min 0 W/m 19,3 km/h (3 Bft) 93,62 %
25.03.2023 21:18 9,4 C 8,9 C 5,6 C 87 % 1007,3 hPa 0,0 l/m 0 min 0 min 0 W/m 22,5 km/h (4 Bft) 93,62 %
25.03.2023 21:20 9,5 C 8,9 C 5,6 C 86 % 1007,2 hPa 0,0 l/m 0 min 0 min 0 W/m 19,3 km/h (3 Bft) 97,73 %
25.03.2023 21:22 9,5 C 8,9 C 5,6 C 86 % 1007,2 hPa 0,0 l/m 0 min 0 min 0 W/m 12,9 km/h (3 Bft) 96,00 %
25.03.2023 21:24 9,5 C 8,9 C 5,6 C 86 % 1007,2 hPa 0,0 l/m 0 min 0 min 0 W/m 16,1 km/h (3 Bft) 95,65 %
25.03.2023 21:26 9,5 C 8,9 C 5,6 C 86 % 1007,3 hPa 0,0 l/m 0 min 0 min 0 W/m 12,9 km/h (3 Bft) 97,87 %
25.03.2023 21:28 9,5 C 8,9 C 5,6 C 86 % 1007,0 hPa 0,0 l/m 0 min 0 min 0 W/m 16,1 km/h (3 Bft) 93,62 %
25.03.2023 21:30 9,5 C 8,9 C 5,0 C 86 % 1007,0 hPa 0,0 l/m 0 min 0 min 0 W/m 16,1 km/h (3 Bft) 95,74 %
25.03.2023 21:32 9,5 C 8,9 C 5,6 C 86 % 1007,0 hPa 0,0 l/m 0 min 0 min 0 W/m 25,7 km/h (4 Bft) 97,87 %
25.03.2023 21:34 9,5 C 8,9 C 5,0 C 86 % 1007,1 hPa 0,0 l/m 0 min 0 min 0 W/m 16,1 km/h (3 Bft) 95,74 %
25.03.2023 21:36 9,4 C 8,3 C 5,0 C 85 % 1007,1 hPa 0,0 l/m 0 min 0 min 0 W/m 12,9 km/h (3 Bft) 95,65 %
25.03.2023 21:38 9,4 C 8,3 C 5,0 C 85 % 1007,0 hPa 0,0 l/m 0 min 0 min 0 W/m 16,1 km/h (3 Bft) 97,87 %
25.03.2023 21:40 9,4 C 8,9 C 5,0 C 85 % 1007,2 hPa 0,0 l/m 0 min 0 min 0 W/m 12,9 km/h (3 Bft) 97,87 %
25.03.2023 21:42 9,4 C 8,3 C 5,0 C 85 % 1007,2 hPa 0,0 l/m 0 min 0 min 0 W/m 6,4 km/h (2 Bft) 93,62 %
25.03.2023 21:44 9,4 C 8,3 C 5,0 C 86 % 1007,3 hPa 0,0 l/m 0 min 0 min 0 W/m 9,7 km/h (2 Bft) 97,87 %
25.03.2023 21:46 9,4 C 8,9 C 5,0 C 85 % 1007,3 hPa 0,0 l/m 0 min 0 min 0 W/m 6,4 km/h (2 Bft) 95,74 %
25.03.2023 21:48 9,4 C 8,3 C 5,0 C 85 % 1007,2 hPa 0,0 l/m 0 min 0 min 0 W/m 9,7 km/h (2 Bft) 97,87 %
25.03.2023 21:50 9,4 C 8,9 C 5,0 C 86 % 1007,2 hPa 0,0 l/m 0 min 0 min 0 W/m 12,9 km/h (3 Bft) 97,87 %
25.03.2023 21:52 9,4 C 8,9 C 5,0 C 85 % 1007,2 hPa 0,0 l/m 0 min 0 min 0 W/m 12,9 km/h (3 Bft) 97,83 %
25.03.2023 21:54 9,4 C 8,9 C 5,0 C 86 % 1007,2 hPa 0,0 l/m 0 min 0 min 0 W/m 16,1 km/h (3 Bft) 100,00 %
25.03.2023 21:56 9,4 C 8,9 C 5,0 C 85 % 1007,2 hPa 0,0 l/m 0 min 0 min 0 W/m 12,9 km/h (3 Bft) 100,00 %
25.03.2023 21:58 9,4 C 8,3 C 5,0 C 85 % 1007,2 hPa 0,0 l/m 0 min 0 min 0 W/m 22,5 km/h (4 Bft) 95,74 %
25.03.2023 22:00 9,4 C 8,3 C 5,0 C 85 % 1007,2 hPa 0,0 l/m 0 min 0 min 0 W/m 22,5 km/h (4 Bft) 97,87 %
25.03.2023 22:02 9,3 C 8,3 C 5,0 C 86 % 1007,2 hPa 0,0 l/m 0 min 0 min 0 W/m 12,9 km/h (3 Bft) 100,00 %
25.03.2023 22:04 9,3 C 8,3 C 5,0 C 86 % 1007,2 hPa 0,0 l/m 0 min 0 min 0 W/m 9,7 km/h (2 Bft) 97,87 %
25.03.2023 22:06 9,3 C 8,3 C 5,0 C 86 % 1007,3 hPa 0,0 l/m 0 min 0 min 0 W/m 19,3 km/h (3 Bft) 95,74 %
25.03.2023 22:08 9,3 C 8,3 C 5,0 C 86 % 1007,3 hPa 0,0 l/m 0 min 0 min 0 W/m 22,5 km/h (4 Bft) 97,83 %
25.03.2023 22:10 9,3 C 8,3 C 5,0 C 86 % 1007,3 hPa 0,0 l/m 0 min 0 min 0 W/m 12,9 km/h (3 Bft) 97,87 %
25.03.2023 22:12 9,3 C 8,3 C 5,0 C 86 % 1007,4 hPa 0,0 l/m 0 min 0 min 0 W/m 9,7 km/h (2 Bft) 95,74 %
25.03.2023 22:14 9,3 C 8,3 C 5,0 C 86 % 1007,3 hPa 0,0 l/m 0 min 0 min 0 W/m 12,9 km/h (3 Bft) 95,74 %
25.03.2023 22:16 9,3 C 8,3 C 5,0 C 87 % 1007,3 hPa 0,0 l/m 0 min 0 min 0 W/m 12,9 km/h (3 Bft) 97,87 %
25.03.2023 22:18 9,3 C 8,3 C 5,0 C 87 % 1007,4 hPa 0,0 l/m 0 min 0 min 0 W/m 16,1 km/h (3 Bft) 97,87 %
25.03.2023 22:20 9,3 C 8,3 C 5,0 C 87 % 1007,3 hPa 0,0 l/m 0 min 0 min 0 W/m 19,3 km/h (3 Bft) 89,36 %
25.03.2023 22:22 9,3 C 8,3 C 5,0 C 87 % 1007,4 hPa 0,0 l/m 0 min 0 min 0 W/m 16,1 km/h (3 Bft) 97,83 %
25.03.2023 22:24 9,3 C 8,3 C 5,0 C 87 % 1007,4 hPa 0,0 l/m 0 min 0 min 0 W/m 12,9 km/h (3 Bft) 95,74 %
25.03.2023 22:26 9,3 C 8,3 C 5,0 C 87 % 1007,5 hPa 0,0 l/m 0 min 0 min 0 W/m 12,9 km/h (3 Bft) 95,74 %
25.03.2023 22:28 9,3 C 8,3 C 5,0 C 87 % 1007,6 hPa 0,0 l/m 0 min 0 min 0 W/m 12,9 km/h (3 Bft) 93,62 %
25.03.2023 22:30 9,3 C 8,9 C 5,0 C 87 % 1007,5 hPa 0,0 l/m 0 min 0 min 0 W/m 25,7 km/h (4 Bft) 95,74 %
25.03.2023 22:32 9,3 C 8,9 C 5,6 C 87 % 1007,6 hPa 0,0 l/m 0 min 0 min 0 W/m 12,9 km/h (3 Bft) 97,87 %
25.03.2023 22:34 9,3 C 8,9 C 5,6 C 87 % 1007,6 hPa 0,0 l/m 0 min 0 min 0 W/m 16,1 km/h (3 Bft) 100,00 %
25.03.2023 22:36 9,4 C 8,9 C 5,6 C 87 % 1007,6 hPa 0,0 l/m 0 min 0 min 0 W/m 16,1 km/h (3 Bft) 100,00 %
25.03.2023 22:38 9,4 C 8,9 C 5,6 C 87 % 1007,5 hPa 0,0 l/m 0 min 0 min 0 W/m 19,3 km/h (3 Bft) 97,96 %
25.03.2023 22:40 9,4 C 8,9 C 5,6 C 87 % 1007,6 hPa 0,0 l/m 0 min 2 min 0 W/m 19,3 km/h (3 Bft) 97,87 %
25.03.2023 22:42 9,4 C 8,9 C 5,6 C 87 % 1007,7 hPa 0,0 l/m 0 min 2 min 0 W/m 12,9 km/h (3 Bft) 100,00 %
25.03.2023 22:44 9,4 C 8,9 C 5,6 C 87 % 1007,6 hPa 0,0 l/m 0 min 2 min 0 W/m 12,9 km/h (3 Bft) 97,62 %
25.03.2023 22:46 9,4 C 8,9 C 5,6 C 87 % 1007,6 hPa 0,0 l/m 0 min 0 min 0 W/m 16,1 km/h (3 Bft) 100,00 %
25.03.2023 22:48 9,5 C 8,9 C 5,6 C 87 % 1007,7 hPa 0,0 l/m 0 min 0 min 0 W/m 16,1 km/h (3 Bft) 97,92 %
25.03.2023 22:50 9,4 C 8,9 C 5,6 C 87 % 1007,7 hPa 0,0 l/m 0 min 0 min 0 W/m 12,9 km/h (3 Bft) 97,92 %
25.03.2023 22:52 9,4 C 8,9 C 5,6 C 87 % 1007,9 hPa 0,0 l/m 0 min 0 min 0 W/m 16,1 km/h (3 Bft) 95,74 %
25.03.2023 22:54 9,5 C 8,9 C 5,6 C 87 % 1007,8 hPa 0,0 l/m 0 min 2 min 0 W/m 12,9 km/h (3 Bft) 97,87 %
25.03.2023 22:56 9,5 C 8,9 C 5,0 C 87 % 1007,8 hPa 0,0 l/m 0 min 2 min 0 W/m 16,1 km/h (3 Bft) 95,74 %
25.03.2023 22:58 9,5 C 8,3 C 4,4 C 88 % 1007,8 hPa 0,0 l/m 0 min 2 min 0 W/m 12,9 km/h (3 Bft) 95,74 %
25.03.2023 23:00 9,4 C 8,3 C 4,4 C 88 % 1007,9 hPa 0,0 l/m 0 min 2 min 0 W/m 22,5 km/h (4 Bft) 95,65 %
25.03.2023 23:02 9,4 C 8,3 C 4,4 C 88 % 1008,0 hPa 0,2 l/m 0 min 2 min 0 W/m 16,1 km/h (3 Bft) 97,87 %
25.03.2023 23:04 9,3 C 8,3 C 4,4 C 89 % 1008,0 hPa 0,2 l/m 0 min 2 min 0 W/m 12,9 km/h (3 Bft) 97,87 %
25.03.2023 23:06 9,3 C 8,3 C 4,4 C 89 % 1008,0 hPa 0,0 l/m 0 min 2 min 0 W/m 19,3 km/h (3 Bft) 95,74 %
25.03.2023 23:08 9,2 C 8,3 C 3,9 C 89 % 1008,1 hPa 0,0 l/m 0 min 0 min 0 W/m 12,9 km/h (3 Bft) 95,83 %
25.03.2023 23:10 9,2 C 8,3 C 3,9 C 90 % 1008,0 hPa 0,0 l/m 0 min 0 min 0 W/m 19,3 km/h (3 Bft) 97,87 %
25.03.2023 23:12 9,1 C 8,3 C 3,9 C 90 % 1008,0 hPa 0,0 l/m 0 min 2 min 0 W/m 16,1 km/h (3 Bft) 97,87 %
25.03.2023 23:14 9,1 C 8,3 C 3,9 C 90 % 1007,9 hPa 0,0 l/m 0 min 2 min 0 W/m 19,3 km/h (3 Bft) 97,83 %
25.03.2023 23:16 9,1 C 8,3 C 3,9 C 90 % 1008,1 hPa 0,0 l/m 0 min 2 min 0 W/m 22,5 km/h (4 Bft) 97,87 %
25.03.2023 23:18 9,0 C 8,3 C 3,9 C 90 % 1008,3 hPa 0,0 l/m 0 min 2 min 0 W/m 22,5 km/h (4 Bft) 97,87 %
25.03.2023 23:20 8,9 C 7,8 C 3,9 C 90 % 1008,0 hPa 0,0 l/m 0 min 2 min 0 W/m 12,9 km/h (3 Bft) 95,83 %
25.03.2023 23:22 8,8 C 7,8 C 3,9 C 90 % 1008,1 hPa 0,0 l/m 0 min 2 min 0 W/m 16,1 km/h (3 Bft) 95,74 %
25.03.2023 23:24 8,8 C 7,8 C 3,9 C 90 % 1008,0 hPa 0,0 l/m 0 min 0 min 0 W/m 12,9 km/h (3 Bft) 95,74 %
25.03.2023 23:26 8,7 C 7,8 C 3,9 C 90 % 1008,0 hPa 0,0 l/m 0 min 0 min 0 W/m 12,9 km/h (3 Bft) 95,74 %
25.03.2023 23:28 8,7 C 7,8 C 3,9 C 91 % 1008,1 hPa 0,0 l/m 0 min 0 min 0 W/m 12,9 km/h (3 Bft) 97,87 %
25.03.2023 23:30 8,6 C 7,8 C 3,9 C 91 % 1008,1 hPa 0,0 l/m 0 min 2 min 0 W/m 16,1 km/h (3 Bft) 97,87 %
25.03.2023 23:32 8,6 C 7,8 C 3,9 C 91 % 1008,0 hPa 0,0 l/m 0 min 2 min 0 W/m 16,1 km/h (3 Bft) 100,00 %
25.03.2023 23:34 8,6 C 7,8 C 3,9 C 91 % 1008,1 hPa 0,0 l/m 0 min 2 min 0 W/m 12,9 km/h (3 Bft) 100,00 %
25.03.2023 23:36 8,5 C 7,8 C 3,9 C 91 % 1008,0 hPa 0,0 l/m 0 min 2 min 0 W/m 16,1 km/h (3 Bft) 97,87 %
25.03.2023 23:38 8,5 C 7,8 C 3,3 C 91 % 1008,0 hPa 0,0 l/m 0 min 2 min 0 W/m 12,9 km/h (3 Bft) 100,00 %
25.03.2023 23:40 8,5 C 7,8 C 3,3 C 91 % 1007,9 hPa 0,0 l/m 0 min 2 min 0 W/m 6,4 km/h (2 Bft) 97,87 %
25.03.2023 23:42 8,4 C 7,8 C 3,9 C 91 % 1007,9 hPa 0,2 l/m 0 min 2 min 0 W/m 12,9 km/h (3 Bft) 97,87 %
25.03.2023 23:44 8,4 C 7,8 C 3,9 C 91 % 1007,9 hPa 0,0 l/m 0 min 2 min 0 W/m 12,9 km/h (3 Bft) 100,00 %
25.03.2023 23:46 8,4 C 7,8 C 3,9 C 91 % 1007,9 hPa 0,0 l/m 0 min 0 min 0 W/m 6,4 km/h (2 Bft) 100,00 %
25.03.2023 23:48 8,4 C 7,8 C 3,9 C 92 % 1007,9 hPa 0,0 l/m 0 min 0 min 0 W/m 6,4 km/h (2 Bft) 98,00 %
25.03.2023 23:50 8,4 C 7,8 C 3,9 C 92 % 1007,9 hPa 0,0 l/m 0 min 0 min 0 W/m 12,9 km/h (3 Bft) 97,37 %
25.03.2023 23:52 8,4 C 7,8 C 3,9 C 92 % 1007,9 hPa 0,0 l/m 0 min 0 min 0 W/m 6,4 km/h (2 Bft) 100,00 %
25.03.2023 23:54 8,4 C 7,8 C 3,9 C 92 % 1008,0 hPa 0,0 l/m 0 min 0 min 0 W/m 9,7 km/h (2 Bft) 97,87 %
25.03.2023 23:56 8,3 C 7,2 C 3,9 C 92 % 1008,0 hPa 0,0 l/m 0 min 0 min 0 W/m 9,7 km/h (2 Bft) 97,87 %
25.03.2023 23:58 8,3 C 7,2 C 3,9 C 92 % 1008,0 hPa 0,0 l/m 0 min 0 min 0 W/m 6,4 km/h (2 Bft) 95,74 %
_ Min-Zeit 07:42 07:26 07:28 11:10 04:34 - - - - 09:28 17:48
Minimum _ 8,1 C 7,2 C 3,3 C 78 % 1003,5 hPa - - - - 6,4 km/h (2 Bft) 40,43 %
_ Max-Zeit 13:46 13:40 09:14 07:52 23:18 16:06 06:44 12:12 13:22 06:16 00:08
Maximum _ 11,8 C 17,8 C 7,8 C 93 % 1008,3 hPa 0,6 l/m 2 min 4 min 788 W/m 54,7 km/h
S (7 Bft)
100,00 %
Durchschnitt _ 9,5 C 9,2 C 5,0 C 86 % 1005,1 hPa #4,8 l/m #2:22 h #4:47 h 170 W/m 23,3 km/h (4 Bft) 96,53 %
© 2023 W. Hausmann